W4HSV Weather Reports


time (UTC)temp
C
wind
direction
speed
KPH
gust
KPH
rain 1hr
cm
rain 24hr
cm
rain mn
cm
humidity
%
barometer
mb
20260906220937 37 326 8.0 14.5 0.00 0.10 0.00 47 1009.0
20260906220825 37 5 9.7 14.5 0.00 0.10 0.00 48 1009.0
20260906220733 37 342 8.0 14.5 0.00 0.10 0.00 49 1009.0
20260906220618 37 342 8.0 14.5 0.00 0.10 0.00 48 1009.0
20260906220546 37 313 6.4 16.1 0.00 0.10 0.00 47 1008.9
20260906220437 37 5 8.0 16.1 0.00 0.10 0.00 48 1009.0
20260906220323 37 300 9.7 16.1 0.00 0.10 0.00 48 1008.9
20260906220255 37 315 11.3 16.1 0.00 0.10 0.00 49 1008.9
20260906220027 37 315 9.7 16.1 0.00 0.10 0.00 48 1008.8
20260906215937 37 347 11.3 16.1 0.00 0.10 0.00 48 1009.0
20260906215825 37 338 11.3 16.1 0.00 0.10 0.00 47 1008.9
20260906215733 37 350 11.3 16.1 0.00 0.10 0.00 47 1009.0
20260906215620 37 338 9.7 16.1 0.00 0.10 0.00 46 1008.9
20260906215528 37 342 9.7 14.5 0.00 0.10 0.00 46 1009.0
20260906215419 37 317 8.0 14.5 0.00 0.10 0.00 46 1009.0
20260906215327 37 346 9.7 14.5 0.00 0.10 0.00 46 1008.9
20260906215234 37 340 9.7 14.5 0.00 0.10 0.00 46 1008.9
20260906215120 37 355 9.7 14.5 0.00 0.10 0.00 47 1009.0
20260906215028 37 312 9.7 16.1 0.00 0.10 0.00 47 1009.0
20260906214933 37 325 8.0 17.7 0.00 0.10 0.00 47 1009.0
20260906214822 37 350 8.0 17.7 0.00 0.10 0.00 46 1009.1
20260906214753 37 276 9.7 17.7 0.00 0.10 0.00 46 1009.1
20260906214525 37 328 8.0 17.7 0.00 0.10 0.00 46 1009.0
20260906214433 37 346 9.7 17.7 0.00 0.10 0.00 47 1009.1
20260906214318 37 355 9.7 17.7 0.00 0.10 0.00 46 1009.1
20260906214229 37 328 9.7 17.7 0.00 0.10 0.00 46 1009.1
20260906214137 37 325 6.4 17.7 0.00 0.10 0.00 48 1009.1
20260906214025 37 283 6.4 14.5 0.00 0.10 0.00 48 1009.1
20260906213931 37 333 8.0 14.5 0.00 0.10 0.00 48 1009.1
20260906213818 37 339 9.7 14.5 0.00 0.10 0.00 47 1009.1
20260906213731 37 324 9.7 14.5 0.00 0.10 0.00 46 1009.1
20260906213657 37 333 9.7 14.5 0.00 0.10 0.00 47 1009.2
20260906213523 37 355 8.0 14.5 0.00 0.10 0.00 47 1009.2
20260906213431 37 340 8.0 14.5 0.00 0.10 0.00 47 1009.1
20260906213319 37 321 8.0 14.5 0.00 0.10 0.00 46 1009.2
20260906213254 37 349 8.0 14.5 0.00 0.10 0.00 46 1009.2
20260906213029 37 329 9.7 16.1 0.00 0.10 0.00 46 1009.1
20260906212935 37 338 11.3 17.7 0.00 0.10 0.00 46 1009.1
20260906212821 37 309 9.7 17.7 0.00 0.10 0.00 46 1009.0
20260906212748 37 360 8.0 17.7 0.00 0.10 0.00 45 1009.1
20260906212634 37 344 9.7 17.7 0.00 0.10 0.00 45 1009.1
20260906212525 37 360 9.7 17.7 0.00 0.10 0.00 47 1009.0
20260906212432 37 355 9.7 17.7 0.00 0.10 0.00 45 1009.0
20260906212319 37 315 11.3 17.7 0.00 0.10 0.00 45 1009.1
20260906212227 37 310 12.9 17.7 0.00 0.10 0.00 44 1009.0
20260906212134 37 315 12.9 17.7 0.00 0.10 0.00 46 1009.0
20260906212042 37 333 12.9 17.7 0.00 0.10 0.00 46 1009.1
20260906211953 37 317 9.7 16.1 0.00 0.10 0.00 47 1009.0
20260906211900 37 319 8.0 16.1 0.00 0.10 0.00 47 1009.0
20260906211831 37 355 6.4 17.7 0.00 0.10 0.00 46 1009.0
20260906211523 37 355 4.8 17.7 0.00 0.10 0.00 46 1009.1
20260906211450 37 347 6.4 17.7 0.00 0.10 0.00 47 1009.1
20260906211322 37 355 8.0 17.7 0.00 0.10 0.00 47 1009.1
20260906211249 37 13 9.7 17.7 0.00 0.10 0.00 47 1009.0
20260906211135 37 351 11.3 20.9 0.00 0.10 0.00 46 1009.1
20260906211023 37 300 12.9 20.9 0.00 0.10 0.00 47 1009.1
20260906210930 37 322 11.3 20.9 0.00 0.10 0.00 47 1009.1
20260906210836 37 323 11.3 20.9 0.00 0.10 0.00 48 1009.1
20260906210727 37 5 11.3 20.9 0.00 0.10 0.00 47 1009.1
20260906210653 37 317 11.3 20.9 0.00 0.10 0.00 47 1009.1
20260906210520 37 342 12.9 20.9 0.00 0.10 0.00 47 1009.1
20260906210428 37 5 12.9 20.9 0.00 0.10 0.00 48 1009.2
20260906210335 37 336 12.9 20.9 0.00 0.10 0.00 49 1009.1
20260906210309 37 360 12.9 20.9 0.00 0.10 0.00 48 1009.1
20260906210022 37 350 14.5 20.9 0.00 0.10 0.00 48 1009.1
20260906205930 37 335 12.9 20.9 0.00 0.10 0.00 48 1009.1
20260906205838 37 5 9.7 19.3 0.00 0.10 0.00 48 1009.1
20260906205724 37 311 6.4 12.9 0.00 0.10 0.00 49 1009.2
20260906205630 37 38 6.4 12.9 0.00 0.10 0.00 48 1009.2
20260906205521 37 290 6.4 14.5 0.00 0.10 0.00 48 1009.1
20260906205428 37 265 6.4 14.5 0.00 0.10 0.00 49 1009.1
20260906205355 37 271 6.4 14.5 0.00 0.10 0.00 49 1009.2
20260906205221 37 298 6.4 17.7 0.00 0.10 0.00 49 1009.2
20260906205127 37 311 6.4 20.9 0.00 0.10 0.00 50 1009.2
20260906205033 37 337 6.4 20.9 0.00 0.10 0.00 50 1009.2
20260906204923 37 15 8.0 20.9 0.00 0.10 0.00 52 1009.1
20260906204830 37 350 8.0 20.9 0.00 0.10 0.00 50 1009.2
20260906204759 37 360 9.7 20.9 0.00 0.10 0.00 50 1009.2
20260906204552 37 347 11.3 20.9 0.00 0.10 0.00 51 1009.2
20260906204438 37 11 14.5 20.9 0.00 0.10 0.00 51 1009.2
20260906204348 37 355 16.1 20.9 0.00 0.10 0.00 49 1009.2
20260906204234 37 5 12.9 20.9 0.00 0.10 0.00 48 1009.3
20260906204122 37 38 11.3 17.7 0.00 0.10 0.00 49 1009.3
20260906204050 37 38 12.9 22.5 0.00 0.10 0.00 48 1009.2
20260906203936 37 26 14.5 22.5 0.00 0.10 0.00 48 1009.3
20260906203843 37 41 9.7 22.5 0.00 0.10 0.00 50 1009.4
20260906203727 37 26 6.4 22.5 0.00 0.10 0.00 53 1009.3
20260906203619 37 351 4.8 22.5 0.00 0.10 0.00 51 1009.3
20260906203525 37 5 6.4 22.5 0.00 0.10 0.00 51 1009.4
20260906203432 37 348 9.7 22.5 0.00 0.10 0.00 51 1009.4
20260906203321 37 360 8.0 22.5 0.00 0.10 0.00 50 1009.4
20260906203255 37 16 8.0 22.5 0.00 0.10 0.00 49 1009.4
20260906203028 37 79 4.8 12.9 0.00 0.10 0.00 51 1009.4
20260906202937 37 58 3.2 12.9 0.00 0.10 0.00 51 1009.4
20260906202823 36 287 1.6 12.9 0.00 0.10 0.00 51 1009.4
20260906202728 36 54 1.6 12.9 0.00 0.10 0.00 50 1009.5
20260906202619 36 127 3.2 17.7 0.00 0.10 0.00 50 1009.5
20260906202546 36 5 3.2 17.7 0.00 0.10 0.00 51 1009.5
20260906202452 36 342 3.2 19.3 0.00 0.10 0.00 50 1009.5
20260906202358 36 5 4.8 19.3 0.00 0.10 0.00 50 1009.5
20260906202223 36 34 8.0 19.3 0.00 0.10 0.00 52 1009.5
20260906202130 36 30 8.0 19.3 0.00 0.10 0.00 51 1009.5
20260906202036 36 25 8.0 19.3 0.00 0.10 0.00 52 1009.5
20260906201926 36 5 11.3 19.3 0.00 0.10 0.00 52 1009.5
20260906201835 36 27 11.3 19.3 0.00 0.10 0.00 52 1009.5
20260906201805 36 20 12.9 19.3 0.00 0.10 0.00 52 1009.5
20260906201537 36 5 14.5 19.3 0.00 0.10 0.00 51 1009.5
20260906201423 36 9 12.9 19.3 0.00 0.10 0.00 51 1009.5
20260906201334 36 17 11.3 19.3 0.00 0.10 0.00 51 1009.5
20260906201220 36 5 11.3 19.3 0.00 0.10 0.00 51 1009.5
20260906201149 36 22 11.3 19.3 0.00 0.10 0.00 51 1009.5
20260906201034 36 46 9.7 19.3 0.00 0.10 0.00 51 1009.6
20260906200940 36 61 11.3 19.3 0.00 0.10 0.00 52 1009.5
20260906200826 36 43 11.3 19.3 0.00 0.10 0.00 52 1009.6
20260906200753 36 32 14.5 19.3 0.00 0.10 0.00 52 1009.5
20260906200625 36 22 14.5 20.9 0.00 0.10 0.00 52 1009.6
20260906200552 36 31 11.3 20.9 0.00 0.10 0.00 52 1009.6
20260906200436 36 33 9.7 20.9 0.00 0.10 0.00 52 1009.7
20260906200324 36 46 8.0 20.9 0.00 0.10 0.00 52 1009.6
20260906200254 36 306 8.0 20.9 0.00 0.10 0.00 52 1009.6
20260906200050 36 88 9.7 20.9 0.00 0.10 0.00 51 1009.7
20260906195936 36 48 12.9 20.9 0.00 0.10 0.00 52 1009.7
20260906195823 36 355 12.9 20.9 0.00 0.10 0.00 53 1009.7
20260906195730 36 38 14.5 20.9 0.00 0.10 0.00 52 1009.8
20260906195637 36 37 14.5 20.9 0.00 0.10 0.00 52 1009.8
20260906195526 36 58 12.9 20.9 0.00 0.10 0.00 51 1009.8
20260906195437 36 19 14.5 20.9 0.00 0.10 0.00 52 1009.8
20260906195324 36 19 14.5 20.9 0.00 0.10 0.00 53 1009.9
20260906195231 36 16 12.9 20.9 0.00 0.10 0.00 52 1009.9
20260906195119 36 32 9.7 19.3 0.00 0.10 0.00 53 1009.9
20260906195027 36 360 8.0 19.3 0.00 0.10 0.00 53 1009.9
20260906194919 36 360 9.7 19.3 0.00 0.10 0.00 53 1009.9
20260906194826 36 344 9.7 19.3 0.00 0.10 0.00 54 1009.9
20260906194756 36 336 9.7 17.7 0.00 0.10 0.00 52 1009.9
20260906194530 36 28 9.7 17.7 0.00 0.10 0.00 51 1009.9
20260906194421 36 32 9.7 19.3 0.00 0.10 0.00 52 1010.0
20260906194329 36 47 9.7 19.3 0.00 0.10 0.00 53 1010.0
20260906194256 36 22 8.0 19.3 0.00 0.10 0.00 52 1010.0
20260906194122 36 40 4.8 19.3 0.00 0.10 0.00 52 1010.0
20260906194028 36 350 3.2 19.3 0.00 0.10 0.00 53 1010.0
20260906193936 36 292 6.4 19.3 0.00 0.10 0.00 52 1010.0
20260906193828 36 11 9.7 19.3 0.00 0.10 0.00 54 1010.2
20260906193734 36 36 9.7 19.3 0.00 0.10 0.00 54 1010.1
20260906193621 36 28 9.7 19.3 0.00 0.10 0.00 54 1010.1
20260906193529 36 9 11.3 17.7 0.00 0.10 0.00 54 1010.1
20260906193436 36 360 9.7 19.3 0.00 0.10 0.00 55 1010.2
20260906193323 36 355 8.0 22.5 0.00 0.10 0.00 53 1010.1
20260906193258 36 5 8.0 22.5 0.00 0.10 0.00 53 1010.1
20260906193032 36 34 11.3 25.7 0.00 0.10 0.00 55 1010.2
20260906192940 36 17 12.9 25.7 0.00 0.10 0.00 54 1010.3
20260906192827 36 360 11.3 25.7 0.00 0.10 0.00 53 1010.2
20260906192718 36 32 12.9 25.7 0.00 0.10 0.00 54 1010.3
20260906192625 36 10 14.5 25.7 0.00 0.10 0.00 56 1010.3
20260906192532 36 11 16.1 25.7 0.00 0.10 0.00 52 1010.3
20260906192418 36 360 17.7 25.7 0.00 0.10 0.00 52 1010.3
20260906192324 36 55 14.5 25.7 0.00 0.10 0.00 51 1010.3
20260906192232 36 16 12.9 25.7 0.00 0.10 0.00 51 1010.3
20260906192123 36 51 12.9 19.3 0.00 0.10 0.00 53 1010.4
20260906192050 36 18 14.5 19.3 0.00 0.10 0.00 53 1010.5
20260906191936 36 17 12.9 19.3 0.00 0.10 0.00 53 1010.4
20260906191844 36 5 8.0 19.3 0.00 0.10 0.00 53 1010.4
20260906191815 36 34 6.4 14.5 0.00 0.10 0.00 53 1010.4
20260906191548 36 345 6.4 16.1 0.00 0.10 0.00 54 1010.4
20260906191438 36 5 8.0 16.1 0.00 0.10 0.00 54 1010.4
20260906191325 36 345 8.0 16.1 0.00 0.10 0.00 54 1010.5
20260906191232 36 355 8.0 16.1 0.00 0.10 0.00 54 1010.5
20260906191140 36 355 9.7 17.7 0.00 0.10 0.00 54 1010.6
20260906191025 36 5 8.0 17.7 0.00 0.10 0.00 52 1010.5
20260906190932 36 26 8.0 17.7 0.00 0.10 0.00 52 1010.5
20260906190824 36 44 9.7 17.7 0.00 0.10 0.00 52 1010.6
20260906190731 36 51 9.7 19.3 0.00 0.10 0.00 53 1010.6
20260906190618 36 35 9.7 19.3 0.00 0.10 0.00 53 1010.7
20260906190524 36 32 8.0 19.3 0.00 0.10 0.00 54 1010.6
20260906190430 36 99 9.7 19.3 0.00 0.10 0.00 54 1010.7
20260906190322 36 20 12.9 19.3 0.00 0.10 0.00 54 1010.6
20260906190254 36 343 12.9 19.3 0.00 0.10 0.00 55 1010.6
20260906190046 36 5 12.9 19.3 0.00 0.10 0.00 55 1010.7
20260906185933 36 355 11.3 19.3 0.00 0.10 0.00 55 1010.7
20260906185821 36 325 8.0 22.5 0.00 0.10 0.00 55 1010.7
20260906185732 36 360 9.7 22.5 0.00 0.10 0.00 54 1010.7
20260906185619 36 42 6.4 22.5 0.00 0.10 0.00 55 1010.7
20260906185526 36 5 4.8 22.5 0.00 0.10 0.00 55 1010.8
20260906185454 36 22 6.4 22.5 0.00 0.10 0.00 54 1010.7
20260906185319 36 51 9.7 22.5 0.00 0.10 0.00 54 1010.8
20260906185227 36 28 12.9 22.5 0.00 0.10 0.00 54 1010.7
20260906185118 36 15 16.1 22.5 0.00 0.10 0.00 55 1010.8
20260906185025 36 22 16.1 22.5 0.00 0.10 0.00 54 1010.8
20260906184933 36 40 14.5 20.9 0.00 0.10 0.00 53 1010.8
20260906184820 36 51 11.3 20.9 0.00 0.10 0.00 54 1010.8
20260906184752 36 85 9.7 20.9 0.00 0.10 0.00 56 1010.9
20260906184526 36 351 3.2 20.9 0.00 0.10 0.00 55 1010.8
20260906184432 36 72 3.2 20.9 0.00 0.10 0.00 53 1010.8
20260906184319 36 53 8.0 20.9 0.00 0.10 0.00 55 1010.9
20260906184226 36 60 8.0 20.9 0.00 0.10 0.00 54 1011.0
20260906184153 36 77 8.0 20.9 0.00 0.10 0.00 54 1010.9
20260906184021 36 65 12.9 20.9 0.00 0.10 0.00 54 1010.9
20260906183949 36 51 12.9 20.9 0.00 0.10 0.00 54 1011.0
20260906183834 36 69 12.9 20.9 0.00 0.10 0.00 54 1011.0
20260906183722 36 65 9.7 16.1 0.00 0.10 0.00 57 1010.9
20260906183629 36 23 6.4 14.5 0.00 0.10 0.00 56 1010.9
20260906183537 36 67 4.8 14.5 0.00 0.10 0.00 54 1010.9
20260906183426 36 51 6.4 16.1 0.00 0.10 0.00 54 1011.0
20260906183333 36 355 8.0 16.1 0.00 0.10 0.00 54 1010.9
20260906183304 36 355 6.4 16.1 0.00 0.10 0.00 54 1010.9
20260906183037 36 31 4.8 16.1 0.00 0.10 0.00 54 1011.0
20260906182928 36 17 6.4 16.1 0.00 0.10 0.00 56 1011.0
20260906182834 36 131 8.0 16.1 0.00 0.10 0.00 55 1011.0
20260906182739 36 119 8.0 16.1 0.00 0.10 0.00 54 1011.1
20260906182625 36 121 9.7 16.1 0.00 0.10 0.00 53 1011.1
20260906182532 36 40 11.3 16.1 0.00 0.10 0.00 53 1011.1
20260906182440 36 45 9.7 17.7 0.00 0.10 0.00 53 1011.2
20260906182326 36 49 8.0 17.7 0.00 0.10 0.00 53 1011.3
20260906182238 36 9 6.4 17.7 0.00 0.10 0.00 53 1011.1
20260906182124 36 28 6.4 17.7 0.00 0.10 0.00 55 1011.2
20260906182030 36 13 4.8 17.7 0.00 0.10 0.00 54 1011.2
20260906181936 36 325 6.4 17.7 0.00 0.10 0.00 52 1011.2
20260906181822 36 26 8.0 17.7 0.00 0.10 0.00 54 1011.2
20260906181757 36 23 8.0 17.7 0.00 0.10 0.00 54 1011.2
20260906181530 36 340 4.8 11.3 0.00 0.10 0.00 53 1011.2
20260906181437 36 306 4.8 11.3 0.00 0.10 0.00 52 1011.3
20260906181344 36 83 4.8 16.1 0.00 0.10 0.00 52 1011.3
20260906181229 36 24 4.8 16.1 0.00 0.10 0.00 54 1011.3
20260906181122 36 309 4.8 16.1 0.00 0.10 0.00 54 1011.3
20260906181030 36 355 3.2 16.1 0.00 0.10 0.00 52 1011.2
20260906180956 36 287 3.2 16.1 0.00 0.10 0.00 53 1011.3
20260906180842 36 123 3.2 16.1 0.00 0.10 0.00 51 1011.4
20260906180729 36 184 4.8 16.1 0.00 0.10 0.00 52 1011.3
20260906180635 36 321 9.7 16.1 0.00 0.10 0.00 53 1011.4
20260906180526 36 360 11.3 16.1 0.00 0.10 0.00 53 1011.4
20260906180455 36 45 9.7 16.1 0.00 0.10 0.00 53 1011.5
20260906180341 36 17 9.7 16.1 0.00 0.10 0.00 54 1011.4
20260906180312 36 40 9.7 16.1 0.00 0.10 0.00 54 1011.4
20260906180026 36 345 8.0 16.1 0.00 0.10 0.00 57 1011.6
20260906175936 36 355 9.7 16.1 0.00 0.10 0.00 55 1011.6
20260906175823 36 17 11.3 16.1 0.00 0.10 0.00 55 1011.6
20260906175750 36 5 11.3 16.1 0.00 0.10 0.00 55 1011.5
20260906175655 36 41 9.7 16.1 0.00 0.10 0.00 56 1011.7
20260906175541 36 5 9.7 14.5 0.00 0.10 0.00 55 1011.6
20260906175446 36 355 9.7 14.5 0.00 0.10 0.00 55 1011.6
20260906175333 36 355 8.0 14.5 0.00 0.10 0.00 55 1011.7
20260906175223 36 298 4.8 14.5 0.00 0.10 0.00 56 1011.7
20260906175129 36 360 6.4 12.9 0.00 0.10 0.00 55 1011.7
20260906175036 36 350 6.4 19.3 0.00 0.10 0.00 55 1011.7
20260906174923 36 327 6.4 19.3 0.00 0.10 0.00 55 1011.8
20260906174831 36 9 6.4 19.3 0.00 0.10 0.00 56 1011.8
20260906174805 35 49 6.4 19.3 0.00 0.10 0.00 54 1011.8
20260906174538 35 28 4.8 19.3 0.00 0.10 0.00 54 1011.9
20260906174444 35 42 4.8 19.3 0.00 0.10 0.00 55 1011.9
20260906174330 35 18 6.4 19.3 0.00 0.10 0.00 53 1011.9
20260906174256 35 275 8.0 19.3 0.00 0.10 0.00 54 1011.9
20260906174123 35 347 6.4 19.3 0.00 0.10 0.00 55 1012.0
20260906174030 35 342 6.4 19.3 0.00 0.10 0.00 55 1011.9
20260906173921 35 9 8.0 19.3 0.00 0.10 0.00 56 1011.9
20260906173848 35 355 9.7 19.3 0.00 0.10 0.00 55 1012.0
20260906173734 35 325 11.3 19.3 0.00 0.10 0.00 54 1011.9
20260906173620 35 290 12.9 19.3 0.00 0.10 0.00 55 1012.0
20260906173528 35 334 14.5 19.3 0.00 0.10 0.00 57 1011.9
20260906173454 35 342 11.3 19.3 0.00 0.10 0.00 55 1011.9
20260906173323 35 22 6.4 17.7 0.00 0.10 0.00 55 1011.9
20260906173253 35 24 6.4 17.7 0.00 0.10 0.00 55 1011.9
20260906173026 35 316 8.0 17.7 0.00 0.10 0.00 56 1011.9
20260906172932 35 305 8.0 17.7 0.00 0.10 0.00 54 1012.0
20260906172824 35 296 11.3 17.7 0.00 0.10 0.00 54 1011.9
20260906172730 35 306 12.9 17.7 0.00 0.10 0.00 55 1012.0
20260906172636 35 348 12.9 17.7 0.00 0.10 0.00 57 1011.9
20260906172523 35 319 12.9 17.7 0.00 0.10 0.00 56 1012.0
20260906172429 35 341 11.3 17.7 0.00 0.10 0.00 56 1011.9
20260906172334 35 10 8.0 16.1 0.00 0.10 0.00 55 1011.9
20260906172244 35 310 4.8 17.7 0.00 0.10 0.00 54 1011.9
20260906172130 35 298 4.8 20.9 0.00 0.10 0.00 55 1011.9
20260906172038 35 323 4.8 20.9 0.00 0.10 0.00 55 1011.9
20260906171925 35 28 6.4 20.9 0.00 0.10 0.00 55 1011.9
20260906171832 35 293 8.0 20.9 0.00 0.10 0.00 55 1012.0
20260906171807 35 344 8.0 20.9 0.00 0.10 0.00 55 1012.0
20260906171539 35 5 4.8 20.9 0.00 0.10 0.00 55 1012.0
20260906171424 35 317 9.7 20.9 0.00 0.10 0.00 54 1012.1
20260906171351 35 325 12.9 20.9 0.00 0.10 0.00 55 1012.0
20260906171237 35 317 11.3 17.7 0.00 0.10 0.00 55 1011.9
20260906171123 35 340 9.7 17.7 0.00 0.10 0.00 56 1011.9
20260906171032 35 312 6.4 16.1 0.00 0.10 0.00 57 1012.0
20260906170920 35 355 8.0 16.1 0.00 0.10 0.00 60 1012.0
20260906170828 35 5 9.7 16.1 0.00 0.10 0.00 56 1012.0
20260906170735 35 338 9.7 16.1 0.00 0.10 0.00 57 1012.1
20260906170623 35 13 9.7 16.1 0.00 0.10 0.00 57 1012.0
20260906170531 35 344 8.0 14.5 0.00 0.10 0.00 58 1012.0
20260906170422 35 5 6.4 14.5 0.00 0.10 0.00 57 1012.0
20260906170330 35 360 6.4 14.5 0.00 0.10 0.00 57 1011.9
20260906170302 35 5 6.4 14.5 0.00 0.10 0.00 57 1011.9
20260906170054 35 297 4.8 16.1 0.00 0.10 0.00 57 1012.0
20260906165924 35 268 4.8 16.1 0.00 0.10 0.00 55 1011.9
20260906165832 35 272 4.8 16.1 0.00 0.10 0.00 56 1012.0
20260906165719 35 355 6.4 16.1 0.00 0.10 0.00 56 1012.0
20260906165625 35 310 6.4 16.1 0.00 0.10 0.00 58 1012.1
20260906165532 35 344 6.4 16.1 0.00 0.10 0.00 58 1012.0
20260906165441 35 346 4.8 16.1 0.00 0.10 0.00 58 1012.1
20260906165346 35 310 6.4 16.1 0.00 0.10 0.00 58 1012.1
20260906165237 34 350 8.0 16.1 0.00 0.10 0.00 59 1012.1
20260906165124 34 323 8.0 12.9 0.00 0.10 0.00 60 1012.1
20260906165031 34 5 8.0 12.9 0.00 0.10 0.00 63 1012.1
20260906164918 34 75 4.8 9.7 0.00 0.10 0.00 58 1012.1
20260906164826 34 355 4.8 14.5 0.00 0.10 0.00 60 1012.0
20260906164758 34 5 6.4 14.5 0.00 0.10 0.00 60 1012.0
20260906164531 34 5 4.8 14.5 0.00 0.10 0.00 59 1012.2
20260906164438 34 13 3.2 14.5 0.00 0.10 0.00 58 1012.1
20260906164325 34 92 3.2 14.5 0.00 0.10 0.00 57 1012.1
20260906164231 34 63 4.8 14.5 0.00 0.10 0.00 59 1012.2
20260906164122 34 17 6.4 14.5 0.00 0.10 0.00 58 1012.3
20260906164048 34 335 6.4 14.5 0.00 0.10 0.00 58 1012.3
20260906163934 34 316 8.0 14.5 0.00 0.10 0.00 59 1012.3
20260906163821 34 331 8.0 14.5 0.00 0.10 0.00 59 1012.3
20260906163728 34 334 6.4 9.7 0.00 0.10 0.00 59 1012.4
20260906163619 34 285 4.8 11.3 0.00 0.10 0.00 60 1012.4
20260906163524 33 355 4.8 9.7 0.00 0.10 0.00 60 1012.4
20260906163432 33 333 4.8 9.7 0.00 0.10 0.00 59 1012.4
20260906163400 33 23 4.8 9.7 0.00 0.10 0.00 61 1012.4
20260906163330 33 5 3.2 9.7 0.00 0.10 0.00 59 1012.4
20260906163043 33 39 4.8 9.7 0.00 0.10 0.00 60 1012.4
20260906162932 33 35 4.8 9.7 0.00 0.10 0.00 63 1012.5
20260906162839 33 346 4.8 9.7 0.00 0.10 0.00 61 1012.4
20260906162725 33 9 6.4 9.7 0.00 0.10 0.00 61 1012.5
20260906162632 33 355 6.4 9.7 0.00 0.10 0.00 61 1012.5
20260906162519 33 327 3.2 11.3 0.00 0.10 0.00 60 1012.5
20260906162425 33 348 3.2 11.3 0.00 0.10 0.00 60 1012.5
20260906162335 33 179 4.8 11.3 0.00 0.10 0.00 59 1012.5
20260906162221 33 163 4.8 11.3 0.00 0.10 0.00 61 1012.5
20260906162130 33 116 6.4 11.3 0.00 0.10 0.00 61 1012.6
20260906162036 33 121 4.8 11.3 0.00 0.10 0.00 63 1012.5
20260906161943 33 126 3.2 8.0 0.00 0.10 0.00 62 1012.6
20260906161911 33 173 1.6 8.0 0.00 0.10 0.00 60 1012.6
20260906161802 33 173 1.6 8.0 0.00 0.10 0.00 61 1012.6
20260906161535 33 20 3.2 8.0 0.00 0.10 0.00 63 1012.6
20260906161442 33 15 4.8 8.0 0.00 0.10 0.00 61 1012.6
20260906161348 33 31 4.8 8.0 0.00 0.10 0.00 61 1012.6
20260906161254 33 334 3.2 8.0 0.00 0.10 0.00 61 1012.7
20260906161120 33 298 1.6 8.0 0.00 0.10 0.00 61 1012.7
20260906161051 33 262 1.6 8.0 0.00 0.10 0.00 61 1012.7
20260906160918 33 258 3.2 8.0 0.00 0.10 0.00 60 1012.7
20260906160825 33 208 4.8 8.0 0.00 0.10 0.00 60 1012.7
20260906160753 33 240 4.8 8.0 0.00 0.10 0.00 61 1012.7
20260906160639 33 285 4.8 9.7 0.00 0.10 0.00 60 1012.7
20260906160527 33 179 4.8 9.7 0.00 0.10 0.00 59 1012.7
20260906160418 33 219 4.8 9.7 0.00 0.10 0.00 59 1012.7
20260906160326 33 289 4.8 9.7 0.00 0.10 0.00 58 1012.7
20260906160256 33 221 4.8 9.7 0.00 0.10 0.00 62 1012.7
20260906160029 33 300 6.4 9.7 0.00 0.10 0.00 61 1012.6
20260906155936 33 360 6.4 9.7 0.00 0.10 0.00 62 1012.7
20260906155827 33 24 8.0 11.3 0.00 0.10 0.00 64 1012.7
20260906155732 33 355 6.4 9.7 0.00 0.10 0.00 62 1012.7
20260906155619 33 360 6.4 8.0 0.00 0.10 0.00 61 1012.7
20260906155546 33 355 4.8 8.0 0.00 0.10 0.00 61 1012.7
20260906155432 33 336 3.2 8.0 0.00 0.10 0.00 62 1012.7
20260906155357 33 326 4.8 8.0 0.00 0.10 0.00 63 1012.7
20260906155228 33 329 4.8 8.0 0.00 0.10 0.00 63 1012.6
20260906155134 33 318 4.8 8.0 0.00 0.10 0.00 63 1012.7
20260906155020 33 5 3.2 8.0 0.00 0.10 0.00 63 1012.7
20260906154927 33 13 3.2 8.0 0.00 0.10 0.00 62 1012.7
20260906154807 33 61 3.2 9.7 0.00 0.10 0.00 63 1012.7
20260906154539 33 346 4.8 9.7 0.00 0.10 0.00 64 1012.6
20260906154427 32 17 4.8 9.7 0.00 0.10 0.00 64 1012.7
20260906154334 32 355 6.4 9.7 0.00 0.10 0.00 66 1012.6
20260906154219 32 12 4.8 9.7 0.00 0.10 0.00 64 1012.7
20260906154127 32 24 4.8 9.7 0.00 0.10 0.00 62 1012.7
20260906154019 32 20 4.8 9.7 0.00 0.10 0.00 63 1012.7
20260906153946 32 335 3.2 8.0 0.00 0.10 0.00 64 1012.7
20260906153853 32 346 3.2 6.4 0.00 0.10 0.00 63 1012.7
20260906153718 32 328 3.2 6.4 0.00 0.10 0.00 63 1012.7
20260906153624 32 329 3.2 6.4 0.00 0.10 0.00 64 1012.7
20260906153530 32 65 1.6 6.4 0.00 0.10 0.00 63 1012.7
20260906153422 32 82 1.6 9.7 0.00 0.10 0.00 63 1012.7
20260906153329 32 81 3.2 9.7 0.00 0.10 0.00 64 1012.7
20260906153300 32 82 3.2 9.7 0.00 0.10 0.00 65 1012.7
20260906153032 32 348 4.8 9.7 0.00 0.10 0.00 66 1012.7
20260906152959 32 28 4.8 9.7 0.00 0.10 0.00 66 1012.6
20260906152829 32 336 3.2 9.7 0.00 0.10 0.00 65 1012.6
20260906152736 32 360 4.8 9.7 0.00 0.10 0.00 65 1012.5
20260906152622 32 360 4.8 9.7 0.00 0.10 0.00 67 1012.6
20260906152528 32 346 1.6 6.4 0.00 0.10 0.00 66 1012.7
20260906152434 32 47 1.6 8.0 0.00 0.10 0.00 65 1012.6
20260906152340 32 9 3.2 8.0 0.00 0.10 0.00 64 1012.6
20260906152229 32 9 3.2 8.0 0.00 0.10 0.00 65 1012.7
20260906152134 32 19 1.6 8.0 0.00 0.10 0.00 65 1012.7
20260906152042 32 360 0.0 8.0 0.00 0.10 0.00 67 1012.7
20260906151928 32 360 1.6 8.0 0.00 0.10 0.00 66 1012.7
20260906151810 31 360 3.2 8.0 0.00 0.10 0.00 66 1012.6
20260906151543 31 39 3.2 4.8 0.00 0.10 0.00 66 1012.6
20260906151428 31 60 1.6 4.8 0.00 0.10 0.00 65 1012.5
20260906151335 31 66 1.6 4.8 0.00 0.10 0.00 65 1012.6
20260906151221 31 61 1.6 4.8 0.00 0.10 0.00 65 1012.6
20260906151130 31 73 1.6 4.8 0.00 0.10 0.00 66 1012.6
20260906151020 31 123 1.6 4.8 0.00 0.10 0.00 66 1012.6
20260906150927 31 135 1.6 4.8 0.00 0.10 0.00 65 1012.6
20260906150833 31 184 1.6 4.8 0.00 0.10 0.00 65 1012.5
20260906150719 31 184 1.6 4.8 0.00 0.10 0.00 66 1012.6
20260906150625 31 15 0.0 3.2 0.00 0.10 0.00 68 1012.5
20260906150532 31 15 1.6 3.2 0.00 0.10 0.00 66 1012.5
20260906150444 31 192 0.0 3.2 0.00 0.10 0.00 67 1012.5
20260906150349 31 157 0.0 4.8 0.00 0.10 0.00 67 1012.5
20260906150259 31 157 0.0 4.8 0.00 0.10 0.00 67 1012.5
20260906150032 31 157 0.0 4.8 0.00 0.10 0.00 67 1012.5
20260906145920 31 157 1.6 4.8 0.00 0.10 0.00 66 1012.4
20260906145831 31 157 1.6 4.8 0.00 0.10 0.00 67 1012.4
20260906145737 31 157 1.6 6.4 0.00 0.10 0.00 66 1012.4
20260906145625 31 157 0.0 8.0 0.00 0.10 0.00 66 1012.4
20260906145532 31 157 1.6 8.0 0.00 0.10 0.00 66 1012.5
20260906145420 31 157 1.6 8.0 0.00 0.10 0.00 67 1012.4
20260906145328 31 157 3.2 8.0 0.00 0.10 0.00 67 1012.4
20260906145219 31 173 1.6 8.0 0.00 0.10 0.00 67 1012.4
20260906145125 31 212 1.6 8.0 0.00 0.10 0.00 66 1012.5
20260906145033 31 313 1.6 8.0 0.00 0.10 0.00 68 1012.5
20260906144920 31 313 3.2 8.0 0.00 0.10 0.00 69 1012.4
20260906144826 31 313 4.8 8.0 0.00 0.10 0.00 69 1012.4
20260906144803 30 323 4.8 8.0 0.00 0.10 0.00 69 1012.4
20260906144536 30 13 3.2 6.4 0.00 0.10 0.00 70 1012.5
20260906144421 30 321 1.6 4.8 0.00 0.10 0.00 71 1012.5
20260906144348 30 277 0.0 4.8 0.00 0.10 0.00 71 1012.4
20260906144255 30 238 1.6 3.2 0.00 0.10 0.00 70 1012.3
20260906144127 30 238 1.6 3.2 0.00 0.10 0.00 69 1012.4
20260906144034 30 238 1.6 4.8 0.00 0.10 0.00 69 1012.3
20260906143940 30 219 1.6 6.4 0.00 0.10 0.00 69 1012.4
20260906143825 30 114 1.6 6.4 0.00 0.10 0.00 69 1012.3
20260906143733 30 114 1.6 6.4 0.00 0.10 0.00 70 1012.3
20260906143620 30 114 0.0 6.4 0.00 0.10 0.00 71 1012.3
20260906143529 30 114 0.0 6.4 0.00 0.10 0.00 70 1012.3
20260906143420 30 114 1.6 6.4 0.00 0.10 0.00 71 1012.3
20260906143347 30 114 3.2 6.4 0.00 0.10 0.00 70 1012.3
20260906143257 30 114 3.2 6.4 0.00 0.10 0.00 68 1012.3
20260906143031 30 251 3.2 4.8 0.00 0.10 0.00 68 1012.4
20260906142920 30 197 3.2 4.8 0.00 0.10 0.00 69 1012.4
20260906142829 30 168 1.6 6.4 0.00 0.10 0.00 70 1012.4
20260906142736 30 111 1.6 4.8 0.00 0.10 0.00 70 1012.4
20260906142622 30 30 0.0 6.4 0.00 0.10 0.00 70 1012.4
20260906142528 30 30 1.6 6.4 0.00 0.10 0.00 70 1012.4
20260906142435 30 30 1.6 6.4 0.00 0.10 0.00 71 1012.4
20260906142324 30 30 1.6 6.4 0.00 0.10 0.00 69 1012.4
20260906142231 30 167 0.0 6.4 0.00 0.10 0.00 69 1012.4
20260906142137 30 218 0.0 6.4 0.00 0.10 0.00 69 1012.4
20260906142023 30 218 1.6 6.4 0.00 0.10 0.00 69 1012.4
20260906141930 29 128 3.2 6.4 0.00 0.10 0.00 69 1012.5
20260906141811 29 128 1.6 6.4 0.00 0.10 0.00 69 1012.4
20260906141545 29 86 3.2 6.4 0.00 0.10 0.00 70 1012.5
20260906141450 29 86 3.2 6.4 0.00 0.10 0.00 70 1012.4
20260906141336 29 79 3.2 6.4 0.00 0.10 0.00 70 1012.5
20260906141222 29 96 3.2 6.4 0.00 0.10 0.00 70 1012.4
20260906141132 29 88 3.2 6.4 0.00 0.10 0.00 71 1012.4
20260906141020 29 119 3.2 6.4 0.00 0.10 0.00 71 1012.4
20260906140928 29 84 4.8 6.4 0.00 0.10 0.00 70 1012.4
20260906140836 29 114 3.2 6.4 0.00 0.10 0.00 71 1012.5
20260906140724 28 111 1.6 6.4 0.00 0.10 0.00 71 1012.5
20260906140635 28 63 1.6 6.4 0.00 0.10 0.00 72 1012.5
20260906140522 28 68 1.6 6.4 0.00 0.10 0.00 71 1012.4
20260906140429 28 55 1.6 6.4 0.00 0.10 0.00 72 1012.4
20260906140355 28 55 3.2 6.4 0.00 0.10 0.00 72 1012.4
20260906140326 28 58 3.2 6.4 0.00 0.10 0.00 73 1012.4
20260906140023 28 113 3.2 6.4 0.00 0.10 0.00 72 1012.4
20260906135930 28 140 3.2 6.4 0.00 0.10 0.00 72 1012.5
20260906135836 28 107 3.2 6.4 0.00 0.10 0.00 72 1012.5
20260906135724 28 86 1.6 4.8 0.00 0.10 0.00 73 1012.5
20260906135630 28 107 1.6 4.8 0.00 0.10 0.00 72 1012.5
20260906135521 28 78 1.6 4.8 0.00 0.10 0.00 73 1012.5
20260906135428 28 59 1.6 4.8 0.00 0.10 0.00 73 1012.5
20260906135334 28 71 1.6 8.0 0.00 0.10 0.00 73 1012.5
20260906135220 28 117 1.6 8.0 0.00 0.10 0.00 73 1012.5
20260906135147 28 82 3.2 8.0 0.00 0.10 0.00 73 1012.5
20260906135031 28 89 1.6 8.0 0.00 0.10 0.00 73 1012.5
20260906134937 27 59 1.6 8.0 0.00 0.10 0.00 73 1012.5
20260906134829 27 82 3.2 8.0 0.00 0.10 0.00 73 1012.5
20260906134757 27 82 3.2 8.0 0.00 0.10 0.00 74 1012.5
20260906134531 27 69 4.8 8.0 0.00 0.10 0.00 74 1012.5
20260906134438 27 42 4.8 8.0 0.00 0.10 0.00 74 1012.5
20260906134329 27 33 4.8 9.7 0.00 0.10 0.00 74 1012.5
20260906134234 27 105 3.2 9.7 0.00 0.10 0.00 75 1012.4
20260906134121 27 84 4.8 9.7 0.00 0.10 0.00 74 1012.4
20260906134029 27 138 4.8 11.3 0.00 0.10 0.00 74 1012.5
20260906133936 27 75 4.8 11.3 0.00 0.10 0.00 74 1012.5
20260906133824 27 107 3.2 11.3 0.00 0.10 0.00 75 1012.4
20260906133736 27 57 4.8 11.3 0.00 0.10 0.00 74 1012.5
20260906133624 27 69 4.8 11.3 0.00 0.10 0.00 75 1012.4
20260906133531 27 114 3.2 11.3 0.00 0.10 0.00 75 1012.5
20260906133439 27 61 4.8 11.3 0.00 0.10 0.00 75 1012.5
20260906133344 27 68 4.8 11.3 0.00 0.10 0.00 75 1012.5
20260906133318 27 113 4.8 9.7 0.00 0.10 0.00 75 1012.5
20260906133031 27 126 4.8 9.7 0.00 0.10 0.00 74 1012.7
20260906132919 27 116 4.8 9.7 0.00 0.10 0.00 76 1012.7
20260906132826 27 127 4.8 9.7 0.00 0.10 0.00 75 1012.7
20260906132734 27 121 4.8 9.7 0.00 0.10 0.00 74 1012.7
20260906132624 27 59 4.8 9.7 0.00 0.10 0.00 75 1012.7
20260906132531 27 69 4.8 11.3 0.00 0.10 0.00 76 1012.8
20260906132458 27 122 4.8 9.7 0.00 0.10 0.00 76 1012.7
20260906132323 27 119 3.2 9.7 0.00 0.10 0.00 75 1012.7
20260906132230 27 57 3.2 9.7 0.00 0.10 0.00 75 1012.8
20260906132158 27 102 3.2 9.7 0.00 0.10 0.00 75 1012.8
20260906132023 27 82 4.8 9.7 0.00 0.10 0.00 75 1012.8
20260906131935 27 63 4.8 9.7 0.00 0.10 0.00 75 1012.8
20260906131823 27 118 4.8 9.7 0.00 0.10 0.00 75 1012.9
20260906131754 27 117 3.2 9.7 0.00 0.10 0.00 75 1012.9
20260906131526 27 117 1.6 9.7 0.00 0.10 0.00 75 1013.0
20260906131437 27 96 1.6 9.7 0.00 0.10 0.00 75 1013.0
20260906131324 27 111 3.2 9.7 0.00 0.10 0.00 75 1012.9
20260906131231 27 119 4.8 9.7 0.00 0.10 0.00 75 1013.0
20260906131119 27 114 3.2 9.7 0.00 0.10 0.00 75 1013.0
20260906131027 27 133 3.2 8.0 0.00 0.10 0.00 76 1013.0
20260906130933 27 94 3.2 8.0 0.00 0.10 0.00 75 1013.0
20260906130824 27 45 4.8 8.0 0.00 0.10 0.00 75 1013.0
20260906130750 27 111 4.8 8.0 0.00 0.10 0.00 75 1013.1
20260906130636 27 56 4.8 8.0 0.00 0.10 0.00 76 1013.1
20260906130544 27 111 4.8 8.0 0.00 0.10 0.00 76 1013.0
20260906130431 27 122 4.8 8.0 0.00 0.10 0.00 76 1013.0
20260906130339 26 132 3.2 4.8 0.00 0.10 0.00 76 1013.0
20260906130313 26 51 3.2 4.8 0.00 0.10 0.00 76 1013.0
20260906130025 26 92 3.2 4.8 0.00 0.10 0.00 77 1013.1
20260906125932 26 80 1.6 4.8 0.00 0.10 0.00 76 1013.1
20260906125858 26 103 1.6 4.8 0.00 0.10 0.00 75 1013.1
20260906125725 26 103 3.2 4.8 0.00 0.10 0.00 75 1013.1
20260906125637 26 114 1.6 4.8 0.00 0.10 0.00 75 1013.1
20260906125524 26 138 1.6 4.8 0.00 0.10 0.00 76 1013.1
20260906125432 26 138 3.2 4.8 0.00 0.10 0.00 76 1013.1
20260906125319 26 138 3.2 4.8 0.00 0.10 0.00 76 1013.1
20260906125226 26 128 3.2 4.8 0.00 0.10 0.00 77 1013.0
20260906125132 26 195 3.2 4.8 0.00 0.10 0.00 76 1013.0
20260906125043 26 195 3.2 4.8 0.00 0.10 0.00 76 1013.0
20260906124929 26 195 1.6 4.8 0.00 0.10 0.00 77 1013.0
20260906124856 26 186 1.6 4.8 0.00 0.10 0.00 77 1013.1
20260906124806 25 186 3.2 4.8 0.00 0.10 0.00 77 1013.1
20260906124519 25 186 3.2 4.8 0.00 0.10 0.00 77 1013.1
20260906124429 25 186 3.2 4.8 0.00 0.10 0.00 77 1013.0
20260906124335 25 186 1.6 4.8 0.00 0.10 0.00 78 1013.1
20260906124223 25 157 0.0 1.6 0.00 0.10 0.00 79 1013.0
20260906124129 25 157 0.0 3.2 0.00 0.10 0.00 79 1013.0
20260906124035 25 157 0.0 3.2 0.00 0.10 0.00 79 1013.1
20260906123925 25 157 0.0 3.2 0.00 0.10 0.00 79 1013.1
20260906123832 25 157 0.0 3.2 0.00 0.10 0.00 80 1013.0
20260906123718 25 157 0.0 3.2 0.00 0.10 0.00 80 1013.0
20260906123626 25 157 0.0 3.2 0.00 0.10 0.00 79 1013.0
20260906123532 25 157 0.0 3.2 0.00 0.10 0.00 80 1013.0
20260906123419 25 157 0.0 3.2 0.00 0.10 0.00 80 1013.0
20260906123330 25 157 0.0 4.8 0.00 0.10 0.00 80 1013.0
20260906123304 24 157 0.0 4.8 0.00 0.10 0.00 82 1013.0
20260906123018 24 157 0.0 4.8 0.00 0.10 0.00 81 1013.1
20260906122926 24 157 0.0 4.8 0.00 0.10 0.00 81 1012.9
20260906122838 24 157 0.0 4.8 0.00 0.10 0.00 81 1013.0
20260906122724 24 157 1.6 4.8 0.00 0.10 0.00 81 1013.0
20260906122633 24 157 3.2 4.8 0.00 0.10 0.00 81 1013.0
20260906122519 24 203 1.6 4.8 0.00 0.10 0.00 81 1013.1
20260906122445 24 200 1.6 4.8 0.00 0.10 0.00 82 1013.1
20260906122332 23 182 1.6 4.8 0.00 0.10 0.00 82 1013.0
20260906122243 23 182 1.6 4.8 0.00 0.10 0.00 82 1013.1
20260906122210 23 182 1.6 3.2 0.00 0.10 0.00 82 1013.0
20260906121932 23 122 1.6 3.2 0.00 0.10 0.00 82 1013.0
20260906121859 23 122 1.6 3.2 0.00 0.10 0.00 82 1013.0
20260906121831 23 122 1.6 3.2 0.00 0.10 0.00 82 1012.9
20260906121527 23 134 0.0 3.2 0.00 0.10 0.00 82 1013.0
20260906121433 23 139 0.0 1.6 0.00 0.10 0.00 82 1012.8
20260906121338 23 139 0.0 0.0 0.00 0.10 0.00 82 1012.9
20260906121245 23 139 0.0 0.0 0.00 0.10 0.00 82 1012.9
20260906121151 23 139 0.0 1.6 0.00 0.10 0.00 82 1012.9
20260906121036 23 139 0.0 1.6 0.00 0.10 0.00 82 1012.9
20260906120922 23 139 0.0 1.6 0.00 0.10 0.00 82 1012.9
20260906120833 23 139 0.0 1.6 0.00 0.10 0.00 82 1012.9
20260906120800 23 139 0.0 1.6 0.00 0.10 0.00 82 1012.9
20260906120544 23 139 0.0 1.6 0.00 0.10 0.00 82 1012.9
20260906120430 23 139 0.0 3.2 0.00 0.10 0.00 82 1012.9
20260906120337 23 139 0.0 3.2 0.00 0.10 0.00 82 1012.9
20260906120253 23 139 0.0 4.8 0.00 0.10 0.00 82 1012.9
20260906120026 23 89 0.0 4.8 0.00 0.10 0.00 82 1012.9
20260906115934 23 109 0.0 4.8 0.00 0.10 0.00 82 1013.0
20260906115820 23 109 0.0 4.8 0.00 0.10 0.00 82 1012.9
20260906115726 23 109 0.0 4.8 0.00 0.10 0.00 82 1013.0
20260906115654 23 109 1.6 4.8 0.00 0.10 0.00 82 1013.0
20260906115525 23 113 3.2 4.8 0.00 0.10 0.00 82 1013.0
20260906115451 23 109 3.2 4.8 0.00 0.10 0.00 82 1012.9
20260906115337 23 124 3.2 4.8 0.00 0.10 0.00 82 1012.9
20260906115246 23 118 1.6 4.8 0.00 0.10 0.00 82 1012.9
20260906115131 23 113 1.6 4.8 0.00 0.10 0.00 82 1012.9
20260906115035 23 79 0.0 4.8 0.00 0.10 0.00 82 1012.9
20260906114922 23 101 1.6 4.8 0.00 0.10 0.00 82 1012.9
20260906114833 23 101 1.6 4.8 0.00 0.10 0.00 82 1013.0
20260906114803 23 105 1.6 4.8 0.00 0.10 0.00 82 1013.0
20260906114536 23 141 3.2 4.8 0.00 0.10 0.00 82 1013.0
20260906114423 23 141 3.2 4.8 0.00 0.10 0.00 82 1013.0
20260906114334 23 137 3.2 4.8 0.00 0.10 0.00 82 1012.9
20260906114222 23 123 3.2 4.8 0.00 0.10 0.00 82 1012.9
20260906114128 23 126 1.6 4.8 0.00 0.10 0.00 82 1013.0
20260906114054 23 94 0.0 4.8 0.00 0.10 0.00 82 1013.1
20260906113919 23 66 0.0 4.8 0.00 0.10 0.00 81 1013.0
20260906113826 23 66 0.0 4.8 0.00 0.10 0.00 81 1013.1
20260906113753 23 67 1.6 4.8 0.00 0.10 0.00 82 1013.0
20260906113643 23 67 3.2 4.8 0.00 0.10 0.00 82 1013.0
20260906113530 23 81 3.2 4.8 0.00 0.10 0.00 82 1012.9
20260906113437 23 83 1.6 4.8 0.00 0.10 0.00 81 1013.0
20260906113323 23 105 0.0 4.8 0.00 0.10 0.00 80 1013.0
20260906113258 23 109 0.0 4.8 0.00 0.10 0.00 80 1013.0
20260906113052 23 331 0.0 4.8 0.00 0.10 0.00 80 1013.1
20260906112919 23 331 0.0 4.8 0.00 0.10 0.00 81 1013.1
20260906112825 23 331 0.0 4.8 0.00 0.10 0.00 81 1013.0
20260906112733 23 332 0.0 4.8 0.00 0.10 0.00 80 1013.0
20260906112620 23 331 1.6 4.8 0.00 0.10 0.00 81 1012.9
20260906112531 23 331 1.6 4.8 0.00 0.10 0.00 81 1013.0
20260906112419 23 322 3.2 4.8 0.00 0.10 0.00 81 1013.0
20260906112327 23 315 1.6 4.8 0.00 0.10 0.00 81 1013.0
20260906112233 23 284 1.6 4.8 0.00 0.10 0.00 81 1013.1
20260906112118 23 227 0.0 4.8 0.00 0.10 0.00 81 1013.0
20260906112024 23 227 0.0 4.8 0.00 0.10 0.00 81 1013.0
20260906111936 23 231 1.6 4.8 0.00 0.10 0.00 81 1013.0
20260906111903 23 231 1.6 4.8 0.00 0.10 0.00 81 1013.0
20260906111833 23 202 1.6 3.2 0.00 0.10 0.00 81 1012.9
20260906111524 23 127 1.6 3.2 0.00 0.10 0.00 81 1012.8
20260906111432 23 127 1.6 4.8 0.00 0.10 0.00 81 1012.8
20260906111342 23 127 1.6 4.8 0.00 0.10 0.00 81 1012.8
20260906111227 23 121 1.6 4.8 0.00 0.10 0.00 80 1012.8
20260906111135 23 109 1.6 4.8 0.00 0.10 0.00 80 1012.8
20260906111021 23 82 1.6 4.8 0.00 0.10 0.00 80 1012.8
20260906110928 23 85 1.6 4.8 0.00 0.10 0.00 80 1012.7
20260906110820 23 121 1.6 4.8 0.00 0.10 0.00 81 1012.7
20260906110726 23 130 1.6 4.8 0.00 0.10 0.00 81 1012.7
20260906110632 23 137 1.6 4.8 0.00 0.10 0.00 80 1012.6
20260906110519 23 133 0.0 3.2 0.00 0.10 0.00 80 1012.5
20260906110426 23 94 0.0 1.6 0.00 0.10 0.00 80 1012.6
20260906110333 23 94 0.0 1.6 0.00 0.10 0.00 79 1012.5
20260906110308 23 80 0.0 1.6 0.00 0.10 0.00 79 1012.5
20260906110021 23 80 0.0 1.6 0.00 0.10 0.00 80 1012.5
20260906105927 23 80 0.0 1.6 0.00 0.10 0.00 80 1012.6
20260906105834 23 80 0.0 1.6 0.00 0.10 0.00 80 1012.5
20260906105725 23 225 0.0 1.6 0.00 0.10 0.00 79 1012.4
20260906105652 23 225 0.0 1.6 0.00 0.10 0.00 80 1012.4
20260906105518 23 225 0.0 1.6 0.00 0.10 0.00 80 1012.3
20260906105425 23 225 0.0 0.0 0.00 0.10 0.00 80 1012.3
20260906105332 23 225 0.0 0.0 0.00 0.10 0.00 80 1012.2
20260906105219 23 225 0.0 1.6 0.00 0.10 0.00 80 1012.2
20260906105129 23 225 0.0 1.6 0.00 0.10 0.00 80 1012.3
20260906105055 23 225 0.0 1.6 0.00 0.10 0.00 80 1012.3
20260906104920 23 225 0.0 1.6 0.00 0.10 0.00 79 1012.3
20260906104826 23 225 0.0 3.2 0.00 0.10 0.00 80 1012.4
20260906104756 23 225 0.0 6.4 0.00 0.10 0.00 80 1012.4
20260906104532 23 225 0.0 6.4 0.00 0.10 0.00 80 1012.4
20260906104440 23 280 0.0 6.4 0.00 0.10 0.00 80 1012.3
20260906104325 23 285 0.0 6.4 0.00 0.10 0.00 80 1012.4
20260906104231 23 285 0.0 6.4 0.00 0.10 0.00 80 1012.3
20260906104118 23 296 1.6 6.4 0.00 0.10 0.00 80 1012.3
20260906104026 23 336 3.2 6.4 0.00 0.10 0.00 80 1012.3
20260906103935 23 312 3.2 6.4 0.00 0.10 0.00 80 1012.3
20260906103823 23 315 3.2 8.0 0.00 0.10 0.00 80 1012.3
20260906103751 23 335 4.8 9.7 0.00 0.10 0.00 80 1012.3
20260906103618 23 319 4.8 9.7 0.00 0.10 0.00 80 1012.3
20260906103544 23 333 3.2 9.7 0.00 0.10 0.00 80 1012.2
20260906103429 23 315 1.6 12.9 0.00 0.10 0.00 80 1012.2
20260906103337 23 325 1.6 12.9 0.00 0.10 0.00 80 1012.2
20260906103310 23 317 3.2 12.9 0.00 0.10 0.00 80 1012.2
20260906103023 23 355 6.4 12.9 0.00 0.10 0.00 80 1012.2
20260906102929 23 342 6.4 12.9 0.00 0.10 0.00 80 1012.2
20260906102837 23 336 6.4 14.5 0.00 0.10 0.00 80 1012.3
20260906102727 23 333 8.0 14.5 0.00 0.10 0.00 81 1012.2
20260906102635 23 336 9.7 14.5 0.00 0.10 0.00 81 1012.3
20260906102522 23 355 9.7 14.5 0.00 0.10 0.00 81 1012.2
20260906102429 23 333 8.0 14.5 0.00 0.10 0.00 81 1012.2
20260906102336 23 330 8.0 14.5 0.00 0.10 0.00 81 1012.2
20260906102226 23 319 9.7 14.5 0.00 0.10 0.00 81 1012.2
20260906102133 23 333 9.7 14.5 0.00 0.10 0.00 81 1012.2
20260906102019 23 339 8.0 14.5 0.00 0.10 0.00 81 1012.2
20260906101926 23 338 4.8 9.7 0.00 0.10 0.00 81 1012.0
20260906101854 23 330 1.6 9.7 0.00 0.10 0.00 81 1012.0
20260906101807 23 339 1.6 9.7 0.00 0.10 0.00 81 1012.0
20260906101519 23 322 3.2 9.7 0.00 0.10 0.00 81 1011.9
20260906101426 23 317 4.8 9.7 0.00 0.10 0.00 81 1012.0
20260906101333 23 305 4.8 9.7 0.00 0.10 0.00 81 1012.0
20260906101220 23 329 4.8 9.7 0.00 0.10 0.00 81 1012.0
20260906101128 23 330 6.4 9.7 0.00 0.10 0.00 81 1012.1
20260906101058 23 311 6.4 9.7 0.00 0.10 0.00 82 1012.1
20260906100925 23 321 6.4 11.3 0.00 0.10 0.00 82 1012.1
20260906100833 23 340 6.4 14.5 0.00 0.10 0.00 82 1012.1
20260906100720 23 318 6.4 14.5 0.00 0.10 0.00 82 1012.1
20260906100627 23 325 4.8 14.5 0.00 0.10 0.00 82 1012.1
20260906100534 23 327 6.4 14.5 0.00 0.10 0.00 82 1012.1
20260906100422 23 300 6.4 14.5 0.00 0.10 0.00 82 1012.1
20260906100349 23 323 6.4 14.5 0.00 0.10 0.00 82 1012.1
20260906100258 23 321 6.4 14.5 0.00 0.10 0.00 82 1012.1
20260906095934 23 311 9.7 14.5 0.00 0.10 0.00 82 1012.1
20260906095825 23 309 9.7 14.5 0.00 0.10 0.00 83 1012.0
20260906095731 23 313 8.0 14.5 0.00 0.10 0.00 83 1012.0
20260906095637 23 307 8.0 14.5 0.00 0.10 0.00 83 1011.9
20260906095523 23 333 8.0 12.9 0.00 0.10 0.00 83 1012.0
20260906095430 23 315 8.0 12.9 0.00 0.10 0.00 83 1011.9
20260906095322 23 322 6.4 12.9 0.00 0.10 0.00 83 1012.0
20260906095229 23 323 6.4 9.7 0.00 0.10 0.00 83 1012.0
20260906095134 23 325 4.8 8.0 0.00 0.10 0.00 83 1011.9
20260906095040 23 315 4.8 6.4 0.00 0.10 0.00 83 1012.0
20260906094925 23 329 3.2 6.4 0.00 0.10 0.00 83 1011.9
20260906094830 23 318 1.6 6.4 0.00 0.10 0.00 83 1011.9
20260906094805 23 323 1.6 6.4 0.00 0.10 0.00 83 1011.9
20260906094538 23 276 3.2 6.4 0.00 0.10 0.00 83 1012.0
20260906094423 23 283 3.2 6.4 0.00 0.10 0.00 84 1012.1
20260906094350 23 327 3.2 6.4 0.00 0.10 0.00 84 1012.1
20260906094237 23 313 3.2 6.4 0.00 0.10 0.00 84 1012.1
20260906094123 23 324 4.8 6.4 0.00 0.10 0.00 84 1012.2
20260906094034 23 302 3.2 6.4 0.00 0.10 0.00 84 1012.2
20260906093922 23 296 3.2 8.0 0.00 0.10 0.00 84 1012.2
20260906093829 23 281 1.6 8.0 0.00 0.10 0.00 83 1012.2
20260906093737 23 289 1.6 8.0 0.00 0.10 0.00 83 1012.1
20260906093624 23 312 1.6 8.0 0.00 0.10 0.00 84 1012.1
20260906093550 23 296 1.6 8.0 0.00 0.10 0.00 84 1012.1
20260906093459 23 296 1.6 8.0 0.00 0.10 0.00 84 1012.0
20260906093325 23 308 4.8 8.0 0.00 0.10 0.00 84 1011.9
20260906093256 23 283 4.8 8.0 0.00 0.10 0.00 84 1011.9
20260906093029 23 293 3.2 8.0 0.00 0.10 0.00 83 1011.9
20260906092919 23 318 0.0 4.8 0.00 0.10 0.00 83 1011.8
20260906092828 23 304 0.0 4.8 0.00 0.10 0.00 83 1011.8
20260906092755 23 278 0.0 4.8 0.00 0.10 0.00 83 1011.7
20260906092621 23 278 0.0 4.8 0.00 0.10 0.00 83 1011.7
20260906092529 23 278 1.6 4.8 0.00 0.10 0.00 83 1011.7
20260906092436 23 278 1.6 4.8 0.00 0.10 0.00 83 1011.7
20260906092327 23 286 1.6 4.8 0.00 0.10 0.00 84 1011.7
20260906092233 23 297 1.6 4.8 0.00 0.10 0.00 84 1011.7
20260906092121 23 242 3.2 4.8 0.00 0.10 0.00 84 1011.7
20260906092029 23 234 1.6 4.8 0.00 0.10 0.00 84 1011.8
20260906091937 23 222 1.6 6.4 0.00 0.10 0.00 84 1011.7
20260906091822 23 248 1.6 6.4 0.00 0.10 0.00 84 1011.8
20260906091755 23 248 3.2 8.0 0.00 0.10 0.00 84 1011.8
20260906091529 23 217 3.2 8.0 0.00 0.10 0.00 83 1012.0
20260906091435 23 234 1.6 9.7 0.00 0.10 0.00 84 1012.0
20260906091342 23 257 1.6 9.7 0.00 0.10 0.00 84 1012.0
20260906091249 23 257 1.6 9.7 0.00 0.10 0.00 84 1012.0
20260906091154 23 276 3.2 9.7 0.00 0.10 0.00 84 1012.1
20260906091043 23 241 3.2 9.7 0.00 0.10 0.00 84 1012.0
20260906090929 23 244 4.8 9.7 0.00 0.10 0.00 83 1012.0
20260906090837 23 240 3.2 9.7 0.00 0.10 0.00 83 1012.0
20260906090722 23 277 3.2 9.7 0.00 0.10 0.00 83 1012.0
20260906090648 23 242 3.2 9.7 0.00 0.10 0.00 83 1012.0
20260906090536 23 232 1.6 4.8 0.00 0.10 0.00 82 1012.1
20260906090427 23 194 1.6 3.2 0.00 0.10 0.00 82 1012.1
20260906090353 23 194 1.6 3.2 0.00 0.10 0.00 82 1012.1
20260906090303 23 194 0.0 3.2 0.00 0.10 0.00 82 1012.1
20260906090037 23 194 0.0 3.2 0.00 0.10 0.00 82 1012.0
20260906085945 23 194 0.0 3.2 0.00 0.10 0.00 82 1012.0
20260906085850 23 194 0.0 3.2 0.00 0.10 0.00 82 1012.1
20260906085719 23 194 0.0 3.2 0.00 0.10 0.00 82 1012.2
20260906085648 23 194 0.0 3.2 0.00 0.10 0.00 82 1012.3
20260906085554 24 194 1.6 3.2 0.00 0.10 0.00 81 1012.3
20260906085459 24 194 1.6 3.2 0.00 0.10 0.00 82 1012.3
20260906085323 24 194 0.0 3.2 0.00 0.10 0.00 82 1012.3
20260906085230 24 194 0.0 3.2 0.00 0.10 0.00 81 1012.3
20260906085138 24 194 0.0 3.2 0.00 0.10 0.00 81 1012.3
20260906085029 24 194 0.0 3.2 0.00 0.10 0.00 81 1012.2
20260906084936 24 194 0.0 4.8 0.00 0.10 0.00 81 1012.2
20260906084844 24 194 0.0 6.4 0.00 0.10 0.00 82 1012.2
20260906084753 24 194 0.0 6.4 0.00 0.10 0.00 81 1012.2
20260906084546 24 194 1.6 6.4 0.00 0.10 0.00 81 1012.1
20260906084435 24 198 0.0 6.4 0.00 0.10 0.00 81 1012.2
20260906084322 24 54 0.0 6.4 0.00 0.10 0.00 81 1012.1
20260906084228 24 54 1.6 8.0 0.00 0.10 0.00 80 1012.2
20260906084136 24 54 3.2 8.0 0.00 0.10 0.00 80 1012.1
20260906084023 24 33 3.2 8.0 0.00 0.10 0.00 79 1012.1
20260906083931 24 20 1.6 8.0 0.00 0.10 0.00 78 1012.0
20260906083822 24 55 0.0 8.0 0.00 0.10 0.00 78 1012.0
20260906083729 24 117 0.0 8.0 0.00 0.10 0.00 79 1011.8
20260906083634 24 142 1.6 8.0 0.00 0.10 0.00 78 1011.8
20260906083520 24 132 3.2 12.9 0.00 0.10 0.00 78 1011.6
20260906083428 24 165 3.2 12.9 0.00 0.10 0.00 77 1011.7
20260906083334 24 174 4.8 12.9 0.00 0.10 0.00 77 1011.6
20260906083309 24 177 4.8 12.9 0.00 0.10 0.00 77 1011.6
20260906083022 24 144 6.4 12.9 0.00 0.10 0.00 77 1011.4
20260906082950 24 142 6.4 12.9 0.00 0.10 0.00 77 1011.4
20260906082836 24 119 6.4 12.9 0.00 0.10 0.00 77 1011.4
20260906082728 24 145 8.0 12.9 0.00 0.10 0.00 77 1011.4
20260906082636 24 142 6.4 11.3 0.00 0.10 0.00 77 1011.4
20260906082523 24 174 4.8 6.4 0.00 0.10 0.00 77 1011.5
20260906082431 24 150 4.8 6.4 0.00 0.10 0.00 78 1011.6
20260906082337 24 182 3.2 8.0 0.00 0.10 0.00 78 1011.5
20260906082225 24 151 3.2 9.7 0.00 0.10 0.00 78 1011.5
20260906082136 24 174 3.2 12.9 0.00 0.10 0.00 77 1011.5
20260906082021 24 215 1.6 12.9 0.00 0.10 0.00 77 1011.5
20260906081928 24 184 3.2 12.9 0.00 0.10 0.00 77 1011.5
20260906081834 24 168 1.6 12.9 0.00 0.10 0.00 78 1011.6
20260906081804 24 129 1.6 12.9 0.00 0.10 0.00 78 1011.6
20260906081520 24 191 4.8 14.5 0.00 0.10 0.00 78 1011.7
20260906081426 24 147 6.4 14.5 0.00 0.10 0.00 77 1011.8
20260906081334 24 120 6.4 14.5 0.00 0.10 0.00 78 1011.9
20260906081221 24 127 6.4 14.5 0.00 0.10 0.00 78 1012.0
20260906081128 24 128 8.0 14.5 0.00 0.10 0.00 78 1012.0
20260906081020 24 115 6.4 14.5 0.00 0.10 0.00 78 1012.0
20260906080928 24 123 4.8 16.1 0.00 0.10 0.00 78 1012.0
20260906080834 24 83 6.4 16.1 0.00 0.10 0.00 78 1012.1
20260906080722 24 102 8.0 16.1 0.00 0.10 0.00 78 1012.1
20260906080630 24 95 8.0 16.1 0.00 0.10 0.00 78 1012.1
20260906080520 24 121 6.4 16.1 0.00 0.10 0.00 79 1012.2
20260906080447 24 117 6.4 16.1 0.00 0.10 0.00 79 1012.2
20260906080415 24 71 6.4 17.7 0.00 0.10 0.00 79 1012.2
20260906080324 24 102 6.4 20.9 0.00 0.10 0.00 79 1012.3
20260906080035 24 67 8.0 24.1 0.00 0.10 0.00 79 1012.4
20260906075924 24 62 4.8 24.1 0.00 0.10 0.00 79 1012.5
20260906075835 24 81 6.4 25.7 0.00 0.10 0.00 79 1012.5
20260906075720 24 82 8.0 25.7 0.00 0.10 0.00 79 1012.6
20260906075627 24 24 11.3 25.7 0.00 0.10 0.00 79 1012.5
20260906075533 24 20 12.9 25.7 0.00 0.10 0.00 79 1012.5
20260906075419 24 80 9.7 25.7 0.00 0.10 0.00 80 1012.5
20260906075330 24 51 12.9 25.7 0.00 0.10 0.00 80 1012.4
20260906075218 24 186 17.7 25.7 0.00 0.10 0.00 79 1012.4
20260906075126 25 59 17.7 25.7 0.00 0.10 0.00 79 1012.4
20260906075033 25 70 16.1 25.7 0.00 0.10 0.00 79 1012.5
20260906074920 25 57 12.9 25.7 0.00 0.10 0.00 79 1012.5
20260906074847 25 69 11.3 24.1 0.00 0.10 0.00 79 1012.6
20260906074801 25 89 12.9 24.1 0.00 0.10 0.00 79 1012.6
20260906074534 25 106 11.3 24.1 0.00 0.10 0.00 78 1012.7
20260906074421 25 38 12.9 24.1 0.00 0.10 0.00 78 1012.8
20260906074330 25 69 12.9 25.7 0.00 0.10 0.00 77 1012.8
20260906074258 25 5 12.9 25.7 0.00 0.10 0.00 77 1012.8
20260906074128 25 84 14.5 30.6 0.00 0.10 0.00 77 1012.9
20260906074055 25 84 16.1 30.6 0.00 0.10 0.00 76 1012.8
20260906073919 25 55 12.9 30.6 0.00 0.10 0.00 76 1012.9
20260906073825 25 5 12.9 33.8 0.00 0.10 0.00 76 1013.0
20260906073733 25 90 14.5 33.8 0.00 0.10 0.00 76 1013.0
20260906073620 25 88 16.1 40.2 0.00 0.10 0.00 75 1013.0
20260906073531 26 63 17.7 40.2 0.00 0.10 0.00 76 1013.0
20260906073440 26 351 17.7 40.2 0.00 0.10 0.00 75 1013.0
20260906073406 26 58 20.9 40.2 0.00 0.10 0.00 76 1013.0
20260906073316 26 43 22.5 40.2 0.00 0.10 0.00 77 1013.0
20260906073029 26 44 22.5 40.2 0.00 0.10 0.00 77 1013.1
20260906072940 26 88 20.9 40.2 0.00 0.10 0.00 77 1013.1
20260906072826 26 355 24.1 40.2 0.00 0.10 0.00 77 1013.1
20260906072733 26 82 25.7 40.2 0.00 0.10 0.00 77 1013.2
20260906072640 26 41 19.3 35.4 0.00 0.10 0.00 77 1013.3
20260906072526 26 28 16.1 35.4 0.00 0.10 0.00 77 1013.4
20260906072452 26 63 17.7 35.4 0.00 0.10 0.00 77 1013.3
20260906072336 26 31 19.3 35.4 0.00 0.10 0.00 77 1013.3
20260906072227 26 30 22.5 35.4 0.00 0.10 0.00 78 1013.3
20260906072154 26 30 20.9 35.4 0.00 0.10 0.00 78 1013.3
20260906072021 26 44 17.7 35.4 0.00 0.10 0.00 78 1013.3
20260906071928 26 71 19.3 32.2 0.00 0.10 0.00 78 1013.4
20260906071835 26 28 20.9 32.2 0.00 0.10 0.00 78 1013.4
20260906071811 26 41 20.9 32.2 0.00 0.10 0.00 79 1013.4
20260906071523 26 5 19.3 32.2 0.00 0.10 0.00 79 1013.4
20260906071450 26 24 20.9 32.2 0.00 0.10 0.00 79 1013.5
20260906071335 26 54 22.5 32.2 0.00 0.10 0.00 79 1013.4
20260906071222 26 30 20.9 29.0 0.00 0.10 0.00 80 1013.4
20260906071127 26 23 17.7 29.0 0.00 0.10 0.00 80 1013.4
20260906071018 26 47 14.5 35.4 0.00 0.10 0.00 80 1013.5
20260906070925 26 31 16.1 40.2 0.00 0.10 0.00 80 1013.5
20260906070853 26 17 17.7 40.2 0.00 0.10 0.00 80 1013.5
20260906070718 26 13 20.9 40.2 0.00 0.10 0.00 80 1013.4
20260906070626 26 28 20.9 40.2 0.00 0.10 0.00 80 1013.5
20260906070553 26 5 17.7 40.2 0.00 0.10 0.00 80 1013.3
20260906070424 26 21 20.9 40.2 0.00 0.10 0.00 79 1013.1
20260906070331 26 33 27.4 40.2 0.00 0.10 0.00 79 1013.2
20260906070302 26 35 25.7 40.2 0.00 0.10 0.00 79 1013.2
20260906070037 26 355 25.7 38.6 0.00 0.10 0.00 79 1013.1
20260906065928 26 346 22.5 33.8 0.00 0.10 0.00 78 1013.2
20260906065837 26 20 17.7 27.4 0.00 0.10 0.00 78 1013.2
20260906065723 26 355 11.3 17.7 0.00 0.10 0.00 78 1013.1
20260906065631 26 350 9.7 14.5 0.00 0.10 0.00 78 1013.0
20260906065518 26 12 8.0 12.9 0.00 0.10 0.00 78 1012.9
20260906065426 26 27 6.4 11.3 0.00 0.10 0.00 78 1012.8
20260906065337 26 47 4.8 11.3 0.00 0.10 0.00 78 1012.7
20260906065223 26 5 3.2 11.3 0.00 0.10 0.00 78 1012.6
20260906065131 26 334 3.2 11.3 0.00 0.10 0.00 78 1012.4
20260906065038 26 306 4.8 11.3 0.00 0.10 0.00 78 1012.5
20260906064925 26 321 6.4 11.3 0.00 0.10 0.00 78 1012.5
20260906064836 26 333 8.0 11.3 0.00 0.10 0.00 78 1012.6
20260906064806 26 20 8.0 14.5 0.00 0.10 0.00 78 1012.6
20260906064519 26 38 6.4 16.1 0.00 0.10 0.00 78 1012.6
20260906064424 26 54 6.4 16.1 0.00 0.10 0.00 78 1012.5
20260906064351 26 23 6.4 16.1 0.00 0.10 0.00 78 1012.4
20260906064222 26 317 4.8 16.1 0.00 0.10 0.00 79 1012.3
20260906064128 26 338 4.8 16.1 0.00 0.10 0.00 79 1012.5
20260906064034 26 69 3.2 16.1 0.00 0.10 0.00 79 1012.6
20260906063942 26 74 6.4 16.1 0.00 0.10 0.00 78 1012.5
20260906063827 26 52 9.7 16.1 0.00 0.10 0.00 78 1012.6
20260906063733 26 48 9.7 16.1 0.00 0.10 0.00 79 1012.5
20260906063645 26 52 8.0 12.9 0.00 0.10 0.00 79 1012.4
20260906063530 26 28 8.0 9.7 0.00 0.10 0.00 79 1012.4
20260906063437 26 32 6.4 9.7 0.00 0.10 0.00 79 1012.4
20260906063343 26 42 4.8 22.5 0.00 0.10 0.00 79 1012.4
20260906063252 26 35 3.2 22.5 0.00 0.10 0.00 79 1012.4
20260906063029 26 47 3.2 22.5 0.00 0.10 0.00 79 1012.5
20260906062936 26 55 3.2 22.5 0.00 0.10 0.00 79 1012.4
20260906062823 26 5 8.0 22.5 0.00 0.10 0.00 79 1012.3
20260906062729 26 5 8.0 22.5 0.00 0.10 0.00 79 1012.3
20260906062637 26 26 8.0 22.5 0.00 0.10 0.00 80 1012.3
20260906062523 26 5 11.3 22.5 0.00 0.10 0.00 80 1012.2
20260906062436 26 9 12.9 22.5 0.00 0.10 0.00 79 1012.2
20260906062323 26 5 11.3 14.5 0.00 0.10 0.00 80 1012.3
20260906062231 26 355 9.7 14.5 0.00 0.10 0.00 81 1012.3
20260906062137 26 17 8.0 14.5 0.00 0.10 0.00 81 1012.3
20260906062023 26 13 8.0 9.7 0.00 0.10 0.00 81 1012.4
20260906061930 26 35 4.8 9.7 0.00 0.10 0.00 81 1012.4
20260906061901 26 36 3.2 8.0 0.00 0.10 0.00 81 1012.4
20260906061831 26 36 0.0 11.3 0.00 0.10 0.00 80 1012.4
20260906061544 27 280 1.6 11.3 0.00 0.10 0.00 81 1012.2
20260906061429 27 280 1.6 11.3 0.00 0.10 0.00 81 1012.2
20260906061336 27 297 3.2 11.3 0.00 0.10 0.00 81 1012.2
20260906061226 27 232 3.2 11.3 0.00 0.10 0.00 81 1012.1
20260906061132 26 268 4.8 11.3 0.00 0.10 0.00 80 1012.1
20260906061018 26 260 4.8 11.3 0.00 0.10 0.00 81 1012.1
20260906060925 26 215 3.2 9.7 0.00 0.10 0.00 80 1012.1
20260906060831 26 231 3.2 11.3 0.00 0.10 0.00 80 1012.1
20260906060722 26 211 4.8 11.3 0.00 0.10 0.00 80 1012.0
20260906060629 26 227 6.4 11.3 0.00 0.10 0.00 80 1012.1
20260906060536 26 215 6.4 11.3 0.00 0.10 0.00 80 1012.1
20260906060424 26 209 6.4 11.3 0.00 0.10 0.00 80 1012.1
20260906060350 26 205 6.4 11.3 0.00 0.10 0.00 80 1012.1
20260906060324 26 180 8.0 11.3 0.00 0.10 0.00 81 1012.1
20260906060056 26 207 8.0 11.3 0.00 0.10 0.00 81 1012.1
20260906055921 26 192 6.4 11.3 0.00 0.10 0.00 81 1012.2
20260906055829 26 196 4.8 11.3 0.00 0.10 0.00 81 1012.1
20260906055756 26 190 6.4 9.7 0.00 0.10 0.00 81 1012.0
20260906055621 26 182 4.8 9.7 0.00 0.10 0.00 81 1012.1
20260906055528 26 184 4.8 12.9 0.00 0.10 0.00 81 1012.1
20260906055420 26 175 4.8 12.9 0.00 0.10 0.00 81 1012.1
20260906055327 26 197 6.4 12.9 0.00 0.10 0.00 81 1012.1
20260906055233 26 174 6.4 12.9 0.00 0.10 0.00 81 1012.0
20260906055120 26 194 6.4 14.5 0.00 0.10 0.00 81 1012.2
20260906055026 26 198 6.4 14.5 0.00 0.10 0.00 81 1012.1
20260906054953 26 178 6.4 14.5 0.00 0.10 0.00 81 1012.1
20260906054822 26 145 6.4 14.5 0.00 0.10 0.00 82 1012.2
20260906054753 26 192 8.0 14.5 0.00 0.10 0.00 82 1012.2
20260906054527 26 199 8.0 14.5 0.00 0.10 0.00 82 1012.3
20260906054434 26 202 9.7 14.5 0.00 0.10 0.10 82 1012.4
20260906054325 26 182 9.7 14.5 0.00 0.10 0.10 82 1012.3
20260906054232 26 204 6.4 11.3 0.00 0.10 0.10 82 1012.3
20260906054138 26 217 4.8 11.3 0.00 0.10 0.10 82 1012.2
20260906054024 26 171 4.8 11.3 0.00 0.10 0.10 83 1012.2
20260906053931 26 161 4.8 11.3 0.00 0.10 0.10 83 1012.2
20260906053823 26 190 4.8 11.3 0.00 0.10 0.10 83 1012.2
20260906053728 26 145 4.8 11.3 0.00 0.10 0.10 83 1012.2
20260906053634 26 167 4.8 12.9 0.00 0.10 0.10 83 1012.2
20260906053521 26 206 4.8 12.9 0.00 0.10 0.10 83 1012.2
20260906053449 26 194 6.4 12.9 0.00 0.10 0.10 83 1012.3
20260906053333 26 178 4.8 12.9 0.00 0.10 0.10 83 1012.2
20260906053307 26 170 4.8 12.9 0.00 0.10 0.10 83 1012.2
20260906053018 26 138 6.4 19.3 0.00 0.10 0.10 83 1012.2
20260906052925 26 133 8.0 19.3 0.00 0.10 0.10 83 1012.2
20260906052830 26 142 9.7 19.3 0.00 0.10 0.10 83 1012.2
20260906052738 26 154 6.4 19.3 0.00 0.10 0.10 83 1012.3
20260906052629 26 125 8.0 19.3 0.00 0.10 0.10 83 1012.3
20260906052538 26 112 9.7 19.3 0.00 0.10 0.10 83 1012.4
20260906052424 26 103 9.7 19.3 0.00 0.10 0.10 83 1012.3
20260906052332 26 42 11.3 19.3 0.00 0.10 0.10 84 1012.3
20260906052240 26 109 12.9 19.3 0.00 0.10 0.10 84 1012.3
20260906052125 26 84 11.3 19.3 0.00 0.10 0.10 84 1012.3
20260906052051 26 96 8.0 17.7 0.00 0.10 0.10 85 1012.3
20260906051941 26 109 4.8 9.7 0.00 0.10 0.10 85 1012.3
20260906051827 26 113 4.8 9.7 0.00 0.10 0.10 85 1012.2
20260906051758 26 111 3.2 6.4 0.00 0.10 0.10 85 1012.2
20260906051532 25 128 1.6 4.8 0.00 0.10 0.10 84 1012.0
20260906051422 25 64 0.0 0.0 0.00 0.10 0.10 84 1012.0
20260906051330 25 64 0.0 0.0 0.00 0.10 0.10 83 1012.0
20260906051257 25 64 0.0 0.0 0.00 0.10 0.10 83 1011.8
20260906051123 26 64 0.0 0.0 0.00 0.10 0.10 83 1011.8
20260906051030 26 64 0.0 0.0 0.00 0.10 0.10 82 1011.8
20260906050936 25 64 0.0 0.0 0.00 0.10 0.10 83 1011.8
20260906050828 26 64 0.0 0.0 0.00 0.10 0.10 83 1011.7
20260906050736 26 64 0.0 0.0 0.00 0.10 0.10 84 1011.7
20260906050642 26 64 0.0 0.0 0.00 0.10 0.10 84 1011.7
20260906050549 26 64 0.0 0.0 0.00 0.10 0.10 84 1011.6
20260906050435 26 64 0.0 0.0 0.00 0.10 0.10 84 1011.6
20260906050323 26 64 0.0 0.0 0.00 0.10 0.10 84 1011.6
20260906050257 26 64 0.0 0.0 0.00 0.10 0.10 84 1011.6
20260906050029 26 64 0.0 0.0 0.00 0.10 0.10 83 1011.6
20260906045937 26 64 0.0 0.0 0.00 0.10 0.10 83 1011.5
20260906045824 26 64 0.0 0.0 0.00 0.10 0.10 84 1011.6
20260906045751 26 64 0.0 0.0 0.00 0.10 0.10 83 1011.6
20260906045619 26 64 0.0 0.0 0.00 0.10 0.10 83 1011.7
20260906045527 26 64 0.0 0.0 0.00 0.10 0.10 83 1011.7
20260906045433 26 64 0.0 0.0 0.00 0.10 0.10 83 1011.6
20260906045321 26 64 0.0 0.0 0.00 0.10 0.10 83 1011.8
20260906045227 26 64 0.0 0.0 0.00 0.10 0.10 83 1011.7
20260906045134 26 64 0.0 0.0 0.00 0.10 0.10 83 1011.8
20260906045046 26 64 0.0 0.0 0.00 0.10 0.10 83 1011.8
20260906044932 26 64 0.0 0.0 0.00 0.10 0.10 82 1011.8
20260906044810 26 64 0.0 0.0 0.00 0.10 0.10 82 1012.0
20260906044523 26 64 0.0 0.0 0.00 0.10 0.10 83 1012.1
20260906044434 26 64 0.0 0.0 0.00 0.10 0.10 83 1012.0
20260906044319 26 64 0.0 0.0 0.00 0.10 0.10 83 1012.1
20260906044228 26 64 0.0 0.0 0.00 0.10 0.10 83 1012.1
20260906044135 26 64 0.0 0.0 0.00 0.10 0.10 83 1012.1
20260906044022 26 64 0.0 0.0 0.00 0.10 0.10 83 1012.0
20260906043933 26 64 0.0 0.0 0.00 0.10 0.10 83 1012.1
20260906043820 26 64 0.0 0.0 0.00 0.10 0.10 83 1012.1
20260906043748 26 64 0.0 0.0 0.00 0.10 0.10 83 1012.1
20260906043655 26 64 0.0 0.0 0.00 0.10 0.10 83 1012.1
20260906043520 26 64 0.0 0.0 0.00 0.10 0.10 83 1012.1
20260906043427 26 64 0.0 0.0 0.00 0.10 0.10 83 1012.2
20260906043335 26 64 0.0 0.0 0.00 0.10 0.10 83 1012.2
20260906043309 26 64 0.0 0.0 0.00 0.10 0.10 82 1012.2
20260906043023 26 64 0.0 0.0 0.00 0.10 0.10 83 1012.2
20260906042930 26 64 0.0 0.0 0.00 0.10 0.10 83 1012.3
20260906042837 26 64 0.0 0.0 0.00 0.10 0.10 83 1012.2
20260906042750 26 64 0.0 0.0 0.00 0.10 0.10 83 1012.2
20260906042635 26 64 0.0 0.0 0.00 0.10 0.10 83 1012.2
20260906042521 26 64 0.0 0.0 0.00 0.10 0.10 82 1012.2
20260906042429 26 64 0.0 0.0 0.00 0.10 0.10 82 1012.1
20260906042337 26 64 0.0 0.0 0.00 0.10 0.10 82 1012.2
20260906042222 26 64 0.0 0.0 0.00 0.10 0.10 82 1012.2
20260906042134 26 64 0.0 0.0 0.00 0.10 0.10 82 1012.3
20260906042022 26 64 0.0 0.0 0.00 0.10 0.10 83 1012.2
20260906041928 26 64 0.0 0.0 0.00 0.10 0.10 83 1012.3
20260906041811 26 64 0.0 0.0 0.00 0.10 0.10 83 1012.3
20260906041524 26 64 0.0 0.0 0.00 0.10 0.10 83 1012.3
20260906041431 26 64 0.0 0.0 0.00 0.10 0.10 83 1012.2
20260906041319 26 64 0.0 0.0 0.00 0.10 0.10 83 1012.2
20260906041245 26 64 0.0 0.0 0.00 0.10 0.10 83 1012.2
20260906041132 26 64 0.0 0.0 0.00 0.10 0.10 82 1012.3
20260906041045 26 64 0.0 0.0 0.00 0.10 0.10 82 1012.2
20260906040931 26 64 0.0 0.0 0.00 0.10 0.10 82 1012.2
20260906040819 26 64 0.0 0.0 0.00 0.10 0.10 82 1012.2
20260906040725 26 64 0.0 0.0 0.00 0.10 0.10 82 1012.1
20260906040632 26 64 0.0 0.0 0.00 0.10 0.10 82 1012.2
20260906040519 26 64 0.0 0.0 0.00 0.10 0.10 82 1012.2
20260906040432 26 64 0.0 0.0 0.00 0.10 0.10 82 1012.1
20260906040308 26 64 0.0 0.0 0.00 0.10 0.10 82 1012.2
20260906040021 26 64 0.0 0.0 0.00 0.10 0.10 82 1012.2
20260906035928 26 64 0.0 1.6 0.00 0.10 0.10 82 1012.2
20260906035819 26 64 0.0 3.2 0.00 0.10 0.10 82 1012.1
20260906035746 26 64 0.0 3.2 0.00 0.10 0.10 82 1012.1
20260906035632 26 64 0.0 3.2 0.00 0.10 0.10 82 1012.1
20260906035559 26 64 0.0 3.2 0.00 0.10 0.10 82 1012.1
20260906035424 26 64 0.0 3.2 0.00 0.10 0.10 82 1012.1
20260906035330 26 64 0.0 3.2 0.00 0.10 0.10 82 1012.1
20260906035221 26 64 0.0 3.2 0.00 0.10 0.10 82 1012.2
20260906035129 26 64 1.6 3.2 0.00 0.10 0.10 81 1012.2
20260906035032 26 64 0.0 3.2 0.00 0.10 0.10 82 1012.3
20260906034920 26 64 0.0 1.6 0.00 0.10 0.10 83 1012.3
20260906034803 26 145 0.0 1.6 0.00 0.10 0.10 83 1012.2
20260906034537 26 145 0.0 0.0 0.00 0.10 0.10 83 1012.2
20260906034422 26 145 0.0 0.0 0.00 0.10 0.10 83 1012.2
20260906034331 26 145 0.0 0.0 0.00 0.10 0.10 83 1012.2
20260906034238 26 145 0.0 1.6 0.00 0.10 0.10 83 1012.1
20260906034128 26 145 0.0 3.2 0.00 0.10 0.10 83 1012.2
20260906034035 26 145 0.0 3.2 0.00 0.10 0.10 83 1012.1
20260906033922 26 145 0.0 3.2 0.00 0.10 0.10 83 1012.2
20260906033828 26 145 0.0 3.2 0.00 0.10 0.10 83 1012.2
20260906033734 26 145 0.0 3.2 0.00 0.10 0.10 84 1012.2
20260906033640 26 145 0.0 3.2 0.00 0.10 0.10 84 1012.1
20260906033530 26 145 0.0 3.2 0.00 0.10 0.10 84 1012.2
20260906033436 26 145 0.0 3.2 0.00 0.10 0.10 84 1012.1
20260906033322 26 145 0.0 3.2 0.00 0.10 0.10 82 1012.1
20260906033252 26 145 0.0 3.2 0.00 0.10 0.10 82 1012.1
20260906033030 26 360 0.0 0.0 0.00 0.10 0.10 81 1012.2
20260906032937 26 360 0.0 0.0 0.00 0.10 0.10 81 1012.2
20260906032825 26 360 0.0 0.0 0.00 0.10 0.10 81 1012.1
20260906032731 26 360 0.0 0.0 0.00 0.10 0.10 81 1012.1
20260906032618 26 360 0.0 0.0 0.00 0.10 0.10 80 1012.1
20260906032526 26 360 0.0 0.0 0.00 0.10 0.10 80 1012.0
20260906032456 26 360 0.0 0.0 0.00 0.10 0.10 81 1012.1
20260906032321 26 360 0.0 0.0 0.00 0.10 0.10 81 1012.0
20260906032230 26 360 0.0 0.0 0.00 0.10 0.10 81 1011.9
20260906032159 26 360 0.0 0.0 0.00 0.10 0.10 81 1012.0
20260906032024 26 360 0.0 0.0 0.00 0.10 0.10 81 1011.9
20260906031932 26 360 0.0 0.0 0.00 0.10 0.10 80 1012.0
20260906031824 26 360 0.0 0.0 0.00 0.10 0.10 80 1012.0
20260906031753 26 360 0.0 0.0 0.00 0.10 0.10 80 1012.0
20260906031547 26 360 0.0 0.0 0.00 0.10 0.10 80 1012.0
20260906031452 26 360 0.0 0.0 0.00 0.10 0.10 80 1012.0
20260906031318 26 360 0.0 0.0 0.00 0.10 0.10 80 1012.0
20260906031229 26 360 0.0 0.0 0.00 0.10 0.10 80 1012.0
20260906031137 26 360 0.0 0.0 0.00 0.10 0.10 80 1012.0
20260906031024 26 360 0.0 0.0 0.00 0.10 0.10 80 1012.0
20260906030951 26 360 0.0 0.0 0.00 0.10 0.10 80 1012.0
20260906030836 26 360 0.0 0.0 0.00 0.10 0.10 81 1012.0
20260906030724 26 360 0.0 0.0 0.00 0.10 0.10 81 1012.0
20260906030634 26 360 0.0 0.0 0.00 0.10 0.10 81 1012.0
20260906030541 26 360 0.0 0.0 0.00 0.10 0.10 80 1012.0
20260906030448 26 360 0.0 0.0 0.00 0.10 0.10 80 1012.0
20260906030415 26 360 0.0 0.0 0.00 0.10 0.10 80 1012.0
20260906030323 26 360 0.0 0.0 0.00 0.10 0.10 80 1011.9
20260906030035 26 360 0.0 0.0 0.00 0.10 0.10 80 1012.1
20260906025926 26 360 0.0 0.0 0.00 0.10 0.10 80 1012.1
20260906025832 26 360 0.0 0.0 0.00 0.10 0.10 81 1012.0
20260906025719 26 360 0.0 0.0 0.00 0.10 0.10 81 1012.1
20260906025626 26 360 0.0 0.0 0.00 0.10 0.10 81 1012.1
20260906025533 26 360 0.0 0.0 0.00 0.10 0.10 81 1012.2
20260906025424 26 360 0.0 0.0 0.00 0.10 0.10 81 1012.1
20260906025353 26 360 0.0 0.0 0.00 0.10 0.10 80 1012.1
20260906025219 26 360 0.0 0.0 0.00 0.10 0.10 80 1012.1
20260906025126 26 360 0.0 0.0 0.00 0.10 0.10 80 1012.1
20260906025054 26 360 0.0 0.0 0.00 0.10 0.10 81 1012.1
20260906024919 26 360 0.0 1.6 0.00 0.10 0.10 81 1012.0
20260906024847 26 360 0.0 1.6 0.00 0.10 0.10 81 1012.0
20260906024822 26 360 0.0 3.2 0.00 0.10 0.10 81 1012.0
20260906024535 26 360 0.0 3.2 0.00 0.10 0.10 81 1012.0
20260906024442 26 360 0.0 3.2 0.00 0.10 0.10 81 1012.0
20260906024328 26 360 0.0 3.2 0.00 0.10 0.10 81 1012.0
20260906024235 26 360 0.0 3.2 0.00 0.10 0.10 81 1012.0
20260906024126 26 360 1.6 3.2 0.00 0.10 0.10 80 1011.9
20260906024035 26 360 1.6 3.2 0.00 0.10 0.10 80 1011.8
20260906023922 26 360 1.6 3.2 0.00 0.10 0.10 80 1011.8
20260906023849 26 360 1.6 3.2 0.00 0.10 0.10 80 1011.8
20260906023733 26 360 1.6 3.2 0.00 0.10 0.10 80 1011.7
20260906023620 26 360 1.6 3.2 0.00 0.10 0.10 80 1011.7
20260906023531 26 360 1.6 3.2 0.00 0.10 0.10 80 1011.6
20260906023438 26 360 1.6 4.8 0.00 0.10 0.10 80 1011.7
20260906023345 26 360 0.0 4.8 0.00 0.10 0.10 80 1011.7
20260906023255 26 360 0.0 4.8 0.00 0.10 0.10 80 1011.7
20260906023028 26 360 0.0 4.8 0.00 0.10 0.10 80 1011.7
20260906022920 26 360 0.0 4.8 0.00 0.10 0.10 80 1011.6
20260906022847 26 360 0.0 4.8 0.00 0.10 0.10 80 1011.6
20260906022734 26 360 1.6 4.8 0.00 0.10 0.10 79 1011.7
20260906022621 26 360 1.6 4.8 0.00 0.10 0.10 79 1011.6
20260906022527 26 360 0.0 4.8 0.00 0.10 0.10 78 1011.5
20260906022419 26 360 1.6 4.8 0.00 0.10 0.10 79 1011.4
20260906022326 26 360 1.6 4.8 0.00 0.10 0.10 79 1011.5
20260906022233 26 360 3.2 4.8 0.00 0.10 0.10 79 1011.5
20260906022141 26 360 3.2 4.8 0.00 0.10 0.10 79 1011.4
20260906022026 26 360 3.2 4.8 0.00 0.10 0.10 79 1011.4
20260906021933 26 360 3.2 4.8 0.00 0.10 0.10 79 1011.4
20260906021823 26 360 1.6 4.8 0.00 0.10 0.10 79 1011.4
20260906021754 26 360 0.0 3.2 0.00 0.10 0.10 79 1011.4
20260906021526 26 360 0.0 0.0 0.00 0.10 0.10 79 1011.4
20260906021433 26 360 0.0 0.0 0.00 0.10 0.10 79 1011.3
20260906021321 26 360 0.0 0.0 0.00 0.10 0.10 79 1011.3
20260906021250 26 360 0.0 1.6 0.00 0.10 0.10 79 1011.3
20260906021137 26 360 0.0 3.2 0.00 0.10 0.10 79 1011.4
20260906021043 26 360 0.0 3.2 0.00 0.10 0.10 79 1011.4
20260906020930 26 360 0.0 3.2 0.00 0.10 0.10 79 1011.3
20260906020837 26 360 0.0 3.2 0.00 0.10 0.10 79 1011.3
20260906020725 26 360 0.0 3.2 0.00 0.10 0.10 79 1011.3
20260906020634 26 360 0.0 3.2 0.00 0.10 0.10 79 1011.3
20260906020522 26 360 0.0 3.2 0.00 0.10 0.10 79 1011.3
20260906020450 26 360 0.0 3.2 0.00 0.10 0.10 79 1011.3
20260906020337 26 360 0.0 3.2 0.00 0.10 0.10 79 1011.3
20260906020307 26 360 0.0 3.2 0.00 0.10 0.10 79 1011.3
20260906020024 26 360 0.0 4.8 0.00 0.10 0.10 79 1011.2
20260906015951 26 360 1.6 4.8 0.00 0.10 0.10 79 1011.2
20260906015837 26 360 1.6 4.8 0.00 0.10 0.10 79 1011.2
20260906015723 26 360 1.6 4.8 0.00 0.10 0.10 78 1011.2
20260906015630 26 360 1.6 4.8 0.00 0.10 0.10 77 1011.2
20260906015518 26 360 3.2 4.8 0.00 0.10 0.10 78 1011.2
20260906015428 26 360 3.2 4.8 0.00 0.10 0.10 77 1011.2
20260906015335 26 360 1.6 4.8 0.00 0.10 0.10 78 1011.2
20260906015243 26 360 0.0 4.8 0.00 0.10 0.10 78 1011.1
20260906015129 26 360 1.6 4.8 0.00 0.10 0.10 78 1011.0
20260906015037 26 360 1.6 4.8 0.00 0.10 0.10 79 1011.1
20260906014944 26 360 1.6 4.8 0.00 0.10 0.10 79 1011.1
20260906014910 26 360 1.6 4.8 0.00 0.10 0.10 78 1011.1
20260906014824 26 360 3.2 4.8 0.00 0.10 0.10 79 1011.1
20260906014537 26 360 1.6 4.8 0.00 0.10 0.10 78 1011.1
20260906014424 26 360 0.0 3.2 0.00 0.10 0.10 78 1011.1
20260906014350 26 360 0.0 0.0 0.00 0.10 0.10 78 1011.1
20260906014220 26 360 0.0 1.6 0.00 0.10 0.10 78 1011.0
20260906014127 26 360 0.0 1.6 0.00 0.10 0.10 78 1011.0
20260906014034 26 360 0.0 1.6 0.00 0.10 0.10 78 1011.0
20260906013941 26 360 0.0 1.6 0.00 0.10 0.10 78 1011.0
20260906013826 26 360 0.0 1.6 0.00 0.10 0.10 78 1011.0
20260906013753 26 360 0.0 1.6 0.00 0.10 0.10 77 1010.9
20260906013639 26 360 0.0 1.6 0.00 0.10 0.10 77 1010.8
20260906013528 26 360 0.0 1.6 0.00 0.10 0.10 77 1010.9
20260906013435 26 360 0.0 1.6 0.00 0.10 0.10 78 1010.8
20260906013402 26 360 0.0 1.6 0.00 0.10 0.10 79 1010.8
20260906013311 26 360 0.0 3.2 0.00 0.10 0.10 79 1010.8
20260906013024 26 360 0.0 3.2 0.00 0.10 0.10 78 1010.8
20260906012935 26 360 0.0 3.2 0.00 0.10 0.10 78 1010.7
20260906012843 26 360 0.0 6.4 0.00 0.10 0.10 78 1010.8
20260906012728 26 360 0.0 6.4 0.00 0.10 0.10 78 1010.8
20260906012635 26 360 0.0 6.4 0.00 0.10 0.10 78 1010.8
20260906012521 26 360 1.6 6.4 0.00 0.10 0.10 79 1010.8
20260906012428 26 360 1.6 6.4 0.00 0.10 0.10 79 1010.8
20260906012339 26 360 1.6 6.4 0.00 0.10 0.10 78 1011.0
20260906012224 26 360 1.6 6.4 0.00 0.10 0.10 78 1010.9
20260906012131 26 360 3.2 6.4 0.00 0.10 0.10 79 1010.8
20260906012018 26 360 3.2 6.4 0.00 0.10 0.10 79 1010.8
20260906011926 26 360 3.2 6.4 0.00 0.10 0.10 78 1010.8
20260906011853 26 360 1.6 3.2 0.00 0.10 0.10 78 1010.8
20260906011806 26 360 1.6 3.2 0.00 0.10 0.10 78 1010.8
20260906011518 26 360 1.6 4.8 0.00 0.10 0.10 78 1010.8
20260906011425 26 360 0.0 4.8 0.00 0.10 0.10 78 1010.8
20260906011332 26 360 0.0 4.8 0.00 0.10 0.10 78 1010.8
20260906011219 26 360 1.6 4.8 0.00 0.10 0.10 78 1010.7
20260906011130 26 360 1.6 4.8 0.00 0.10 0.10 78 1010.8
20260906011018 26 360 1.6 6.4 0.00 0.10 0.10 78 1010.8
20260906010925 26 360 1.6 6.4 0.00 0.10 0.10 78 1010.7
20260906010831 26 360 1.6 6.4 0.00 0.10 0.10 77 1010.7
20260906010737 26 360 1.6 6.4 0.00 0.10 0.10 77 1010.7
20260906010627 26 360 1.6 6.4 0.00 0.10 0.10 77 1010.7
20260906010555 26 360 3.2 6.4 0.00 0.10 0.10 78 1010.7
20260906010421 26 360 3.2 6.4 0.00 0.10 0.10 78 1010.7
20260906010328 27 360 3.2 6.4 0.00 0.10 0.10 78 1010.6
20260906010259 26 360 4.8 6.4 0.00 0.10 0.10 78 1010.6
20260906010036 27 360 4.8 6.4 0.00 0.10 0.10 78 1010.6
20260906005922 27 360 3.2 4.8 0.00 0.10 0.10 77 1010.6
20260906005848 27 28 3.2 6.4 0.00 0.10 0.10 77 1010.5
20260906005734 26 42 3.2 6.4 0.00 0.10 0.10 77 1010.6
20260906005619 27 42 3.2 6.4 0.00 0.10 0.10 77 1010.7
20260906005528 27 61 3.2 6.4 0.00 0.10 0.10 76 1010.6
20260906005420 27 55 3.2 6.4 0.00 0.10 0.10 77 1010.5
20260906005327 27 53 3.2 6.4 0.00 0.10 0.10 77 1010.5
20260906005232 27 57 3.2 6.4 0.00 0.10 0.10 77 1010.5
20260906005120 27 42 3.2 6.4 0.00 0.10 0.10 77 1010.4
20260906005047 27 42 3.2 6.4 0.00 0.10 0.10 77 1010.4
20260906004953 27 42 3.2 6.4 0.00 0.10 0.10 77 1010.4
20260906004822 27 42 4.8 6.4 0.00 0.10 0.10 77 1010.5
20260906004752 27 42 4.8 6.4 0.00 0.10 0.10 77 1010.5
20260906004525 27 36 4.8 6.4 0.00 0.10 0.10 77 1010.4
20260906004433 27 37 4.8 6.4 0.00 0.10 0.10 77 1010.4
20260906004321 27 37 3.2 6.4 0.00 0.10 0.10 77 1010.4
20260906004253 27 37 1.6 6.4 0.00 0.10 0.10 76 1010.5
20260906004119 27 69 0.0 6.4 0.00 0.10 0.10 76 1010.5
20260906004027 27 87 0.0 6.4 0.00 0.10 0.10 76 1010.6
20260906003935 27 87 0.0 6.4 0.00 0.10 0.10 77 1010.4
20260906003823 27 87 1.6 6.4 0.00 0.10 0.10 77 1010.5
20260906003732 27 121 1.6 6.4 0.00 0.10 0.10 77 1010.5
20260906003620 27 98 4.8 6.4 0.00 0.10 0.10 77 1010.5
20260906003527 27 119 3.2 8.0 0.00 0.10 0.10 77 1010.5
20260906003454 27 117 3.2 8.0 0.00 0.10 0.10 76 1010.5
20260906003422 27 116 1.6 3.2 0.00 0.10 0.10 76 1010.5
20260906003331 27 116 0.0 4.8 0.00 0.10 0.10 74 1010.5
20260906003044 27 116 0.0 4.8 0.03 0.10 0.10 75 1010.5
20260906002934 27 116 0.0 4.8 0.08 0.10 0.10 75 1010.5
20260906002820 27 116 0.0 4.8 0.10 0.10 0.10 75 1010.6
20260906002727 27 219 0.0 4.8 0.10 0.10 0.10 76 1010.5
20260906002635 27 219 1.6 6.4 0.10 0.10 0.10 77 1010.5
20260906002521 27 219 1.6 6.4 0.10 0.10 0.10 75 1010.7
20260906002449 27 208 1.6 6.4 0.10 0.10 0.10 76 1010.6
20260906002319 27 128 0.0 6.4 0.10 0.10 0.10 76 1010.6
20260906002227 27 128 0.0 6.4 0.10 0.10 0.10 75 1010.7
20260906002133 27 128 0.0 12.9 0.10 0.10 0.10 75 1010.6
20260906002019 27 173 0.0 12.9 0.10 0.10 0.10 75 1010.7
20260906001926 27 173 1.6 12.9 0.10 0.10 0.10 75 1010.7
20260906001833 27 158 1.6 12.9 0.10 0.10 0.10 75 1010.8
20260906001807 27 149 1.6 12.9 0.10 0.10 0.10 75 1010.8
20260906001521 27 190 3.2 12.9 0.10 0.10 0.10 75 1010.8
20260906001428 27 193 4.8 22.5 0.10 0.10 0.10 75 1010.8
20260906001334 27 186 6.4 25.7 0.10 0.10 0.10 76 1010.9
20260906001225 27 197 6.4 25.7 0.10 0.10 0.10 75 1010.9
20260906001132 27 180 8.0 25.7 0.10 0.10 0.10 76 1010.9
20260906001018 27 152 9.7 25.7 0.10 0.10 0.10 76 1011.1
20260906000925 27 121 9.7 25.7 0.10 0.10 0.10 75 1011.1
20260906000831 27 113 8.0 25.7 0.10 0.10 0.10 75 1011.0
20260906000758 27 123 8.0 25.7 0.10 0.10 0.10 75 1011.1
20260906000629 27 131 11.3 25.7 0.10 0.10 0.10 74 1011.1
20260906000518 27 171 14.5 25.7 0.10 0.10 0.10 75 1011.2
20260906000425 27 156 12.9 24.1 0.10 0.10 0.10 75 1011.2
20260906000330 27 181 9.7 16.1 0.10 0.10 0.10 75 1011.3
20260906000303 27 142 9.7 16.1 0.10 0.10 0.10 76 1011.3
20260906000019 27 134 11.3 22.5 0.10 0.10 0.10 76 1011.2
20260905235926 27 194 9.7 22.5 0.10 0.10 0.10 76 1011.3
20260905235834 27 170 9.7 22.5 0.10 0.10 0.10 77 1011.3
20260905235742 27 172 9.7 22.5 0.10 0.10 0.10 77 1011.3
20260905235628 27 171 11.3 22.5 0.10 0.10 0.10 77 1011.4
20260905235534 27 135 11.3 22.5 0.10 0.10 0.10 79 1011.2
20260905235423 27 74 9.7 24.1 0.10 0.10 0.10 79 1011.3
20260905235331 27 116 9.7 24.1 0.10 0.10 0.10 79 1011.4
20260905235218 27 149 14.5 24.1 0.10 0.10 0.10 77 1011.4
20260905235125 27 130 12.9 24.1 0.10 0.10 0.10 79 1011.4
20260905235031 26 128 11.3 29.0 0.10 0.10 0.10 80 1011.4
20260905234923 26 130 9.7 37.0 0.10 0.10 0.10 80 1011.3
20260905234830 26 115 12.9 37.0 0.10 0.10 0.10 81 1011.3
20260905234800 26 53 16.1 43.5 0.10 0.10 0.10 81 1011.3
20260905234534 26 109 17.7 43.5 0.10 0.10 0.10 80 1011.3
20260905234425 26 104 17.7 43.5 0.10 0.10 0.10 81 1011.3
20260905234331 26 146 19.3 43.5 0.10 0.10 0.10 80 1011.2
20260905234219 26 115 24.1 43.5 0.10 0.10 0.10 80 1011.2
20260905234126 27 111 25.7 43.5 0.10 0.10 0.10 80 1011.2
20260905234033 27 118 29.0 43.5 0.10 0.10 0.10 80 1011.3
20260905233921 27 132 32.2 43.5 0.10 0.10 0.10 79 1011.3
20260905233853 27 113 30.6 43.5 0.10 0.10 0.10 79 1011.3
20260905233719 28 126 27.4 43.5 0.10 0.10 0.10 78 1011.4
20260905233626 28 122 25.7 43.5 0.10 0.10 0.10 78 1011.5
20260905233532 28 126 25.7 43.5 0.10 0.10 0.10 77 1011.5
20260905233419 29 183 29.0 43.5 0.10 0.10 0.10 75 1011.5
20260905233326 30 128 30.6 43.5 0.10 0.10 0.10 68 1011.3
20260905233301 30 136 29.0 43.5 0.10 0.10 0.10 68 1011.3
20260905233034 32 103 27.4 40.2 0.10 0.10 0.10 65 1010.9
20260905232942 33 90 25.7 40.2 0.10 0.10 0.10 64 1010.8
20260905232829 33 142 27.4 40.2 0.10 0.10 0.10 64 1010.8
20260905232718 35 86 29.0 41.8 0.08 0.08 0.08 61 1010.7
20260905232645 35 148 22.5 35.4 0.08 0.08 0.08 60 1010.7
20260905232530 36 123 12.9 29.0 0.00 0.00 0.00 59 1010.7
20260905232438 36 90 8.0 12.9 0.00 0.00 0.00 57 1010.5
20260905232326 36 44 8.0 11.3 0.00 0.00 0.00 56 1010.4
20260905232253 36 32 8.0 11.3 0.00 0.00 0.00 55 1010.3
20260905232119 36 42 6.4 8.0 0.00 0.00 0.00 54 1010.2
20260905232030 36 41 4.8 8.0 0.00 0.00 0.00 53 1010.3
20260905231918 36 31 3.2 6.4 0.00 0.00 0.00 54 1010.1
20260905231825 36 348 3.2 6.4 0.00 0.00 0.00 54 1010.2
20260905231753 36 331 3.2 6.4 0.00 0.00 0.00 55 1010.2
20260905231529 36 333 3.2 6.4 0.00 0.00 0.00 55 1010.2
20260905231437 36 351 4.8 6.4 0.00 0.00 0.00 55 1010.2
20260905231324 36 12 4.8 6.4 0.00 0.00 0.00 53 1010.1
20260905231233 36 5 3.2 4.8 0.00 0.00 0.00 53 1010.1
20260905231121 36 5 1.6 4.8 0.00 0.00 0.00 52 1010.2
20260905231029 36 5 1.6 4.8 0.00 0.00 0.00 52 1010.2
20260905230921 36 5 1.6 4.8 0.00 0.00 0.00 52 1010.1
20260905230827 36 5 3.2 4.8 0.00 0.00 0.00 52 1010.1
20260905230735 36 5 3.2 4.8 0.00 0.00 0.00 52 1010.1
20260905230643 36 5 3.2 4.8 0.00 0.00 0.00 52 1010.2
20260905230528 36 5 3.2 4.8 0.00 0.00 0.00 52 1010.1
20260905230418 36 360 3.2 4.8 0.00 0.00 0.00 52 1010.2
20260905230324 36 360 3.2 4.8 0.00 0.00 0.00 51 1010.1
20260905230255 36 10 3.2 4.8 0.00 0.00 0.00 51 1010.1
20260905230048 36 10 3.2 4.8 0.00 0.00 0.00 51 1010.1
20260905225933 36 10 3.2 4.8 0.00 0.00 0.00 51 1010.0
20260905225823 36 10 3.2 6.4 0.00 0.00 0.00 51 1010.0
20260905225731 36 10 3.2 6.4 0.00 0.00 0.00 51 1010.1
20260905225637 36 360 3.2 6.4 0.00 0.00 0.00 51 1010.1
20260905225523 36 360 3.2 6.4 0.00 0.00 0.00 51 1010.1
20260905225429 36 360 3.2 6.4 0.00 0.00 0.00 50 1010.1
20260905225334 36 360 4.8 6.4 0.00 0.00 0.00 50 1010.1
20260905225227 37 5 4.8 6.4 0.00 0.00 0.00 51 1010.1
20260905225133 37 5 3.2 8.0 0.00 0.00 0.00 50 1010.1
20260905225020 37 5 4.8 8.0 0.00 0.00 0.00 50 1010.1
20260905224929 37 5 4.8 8.0 0.00 0.00 0.00 50 1010.0
20260905224809 37 11 4.8 8.0 0.00 0.00 0.00 51 1010.1
20260905224523 37 11 4.8 8.0 0.00 0.00 0.00 50 1010.0
20260905224452 37 355 4.8 8.0 0.00 0.00 0.00 49 1010.1
20260905224357 37 351 4.8 8.0 0.00 0.00 0.00 49 1010.1
20260905224222 37 22 4.8 8.0 0.00 0.00 0.00 49 1010.1
20260905224130 37 5 4.8 8.0 0.00 0.00 0.00 48 1010.0
20260905224020 37 43 3.2 8.0 0.00 0.00 0.00 49 1010.0
20260905223928 37 29 3.2 8.0 0.00 0.00 0.00 48 1010.0
20260905223834 37 34 3.2 8.0 0.00 0.00 0.00 48 1010.1
20260905223741 37 47 4.8 8.0 0.00 0.00 0.00 49 1010.0
20260905223628 37 19 4.8 8.0 0.00 0.00 0.00 48 1010.1
20260905223555 37 42 4.8 8.0 0.00 0.00 0.00 49 1010.1
20260905223420 37 24 3.2 8.0 0.00 0.00 0.00 48 1010.1
20260905223303 37 9 3.2 8.0 0.00 0.00 0.00 48 1010.1
20260905223056 37 5 4.8 8.0 0.00 0.00 0.00 48 1010.2
20260905222922 37 24 6.4 8.0 0.00 0.00 0.00 48 1010.1
20260905222830 37 29 4.8 8.0 0.00 0.00 0.00 48 1010.2
20260905222721 37 40 3.2 8.0 0.00 0.00 0.00 47 1010.1
20260905222648 37 78 4.8 8.0 0.00 0.00 0.00 47 1010.2
20260905222554 37 41 4.8 8.0 0.00 0.00 0.00 46 1010.0
20260905222420 37 59 4.8 8.0 0.00 0.00 0.00 46 1010.1
20260905222349 37 57 3.2 6.4 0.00 0.00 0.00 46 1010.2
20260905222234 37 47 3.2 6.4 0.00 0.00 0.00 47 1010.1
20260905222125 37 89 1.6 6.4 0.00 0.00 0.00 46 1010.1
20260905222031 37 34 1.6 4.8 0.00 0.00 0.00 46 1010.1
20260905221918 37 360 3.2 8.0 0.00 0.00 0.00 47 1010.1
20260905221845 38 360 3.2 8.0 0.00 0.00 0.00 46 1010.1
20260905221817 38 360 1.6 8.0 0.00 0.00 0.00 46 1010.1
20260905221533 38 325 1.6 8.0 0.00 0.00 0.00 46 1010.1
20260905221420 38 325 1.6 8.0 0.00 0.00 0.00 46 1010.1
20260905221346 38 30 3.2 8.0 0.00 0.00 0.00 47 1010.2
20260905221232 38 38 3.2 12.9 0.00 0.00 0.00 47 1010.2
20260905221140 38 20 4.8 14.5 0.00 0.00 0.00 47 1010.2
20260905221027 38 15 4.8 14.5 0.00 0.00 0.00 47 1010.2